Wetterdaten: Freitag, 21.10.2016
Datum Zeit Temp. A. Feuchte A. Luftdruck Regen Wind Richtung Richtung Sonnenschein ET UV Solar Taupunkt Windchill Windben Empfang
21.10.2016 00:00 2,8 C 98 % 1013,8 hPa 0,0 l/m 3,2 km/h (1 Bft) O-NO 71 0 min 0,000 mm 0,0 UV-I 0 W/m 2,5 C 2,8 C 6,4 km/h (2 Bft) 100,00 %
21.10.2016 00:02 3,0 C 98 % 1013,8 hPa 0,0 l/m 0,8 km/h (0 Bft) O-NO 71 0 min 0,000 mm 0,0 UV-I 0 W/m 2,7 C 3,0 C 1,6 km/h (1 Bft) 100,00 %
21.10.2016 00:04 2,9 C 98 % 1013,8 hPa 0,0 l/m 1,2 km/h (1 Bft) O-SO 106 0 min 0,000 mm 0,0 UV-I 0 W/m 2,6 C 2,9 C 3,2 km/h (1 Bft) 95,74 %
21.10.2016 00:06 2,8 C 98 % 1013,9 hPa 0,0 l/m 1,3 km/h (1 Bft) O-SO 106 0 min 0,000 mm 0,0 UV-I 0 W/m 2,5 C 2,8 C 3,2 km/h (1 Bft) 100,00 %
21.10.2016 00:08 2,7 C 98 % 1013,9 hPa 0,0 l/m 1,9 km/h (1 Bft) O-SO 106 0 min 0,000 mm 0,0 UV-I 0 W/m 2,4 C 2,7 C 3,2 km/h (1 Bft) 95,74 %
21.10.2016 00:10 2,5 C 97 % 1013,9 hPa 0,0 l/m 2,0 km/h (1 Bft) O-SO 105 0 min 0,000 mm 0,0 UV-I 0 W/m 2,1 C 2,5 C 3,2 km/h (1 Bft) 100,00 %
21.10.2016 00:12 2,4 C 97 % 1013,9 hPa 0,0 l/m 1,7 km/h (1 Bft) SO 133 0 min 0,000 mm 0,0 UV-I 0 W/m 2,0 C 2,4 C 3,2 km/h (1 Bft) 97,87 %
21.10.2016 00:14 2,3 C 97 % 1013,9 hPa 0,0 l/m 2,1 km/h (1 Bft) SO 133 0 min 0,000 mm 0,0 UV-I 0 W/m 1,9 C 2,3 C 3,2 km/h (1 Bft) 100,00 %
21.10.2016 00:16 2,3 C 97 % 1013,8 hPa 0,0 l/m 1,6 km/h (1 Bft) SO 133 0 min 0,000 mm 0,0 UV-I 0 W/m 1,9 C 2,3 C 3,2 km/h (1 Bft) 100,00 %
21.10.2016 00:18 2,2 C 97 % 1013,8 hPa 0,0 l/m 1,7 km/h (1 Bft) SO 133 0 min 0,000 mm 0,0 UV-I 0 W/m 1,8 C 2,2 C 3,2 km/h (1 Bft) 100,00 %
21.10.2016 00:20 2,3 C 97 % 1013,9 hPa 0,0 l/m 2,5 km/h (1 Bft) SO 146 0 min 0,000 mm 0,0 UV-I 0 W/m 1,9 C 2,3 C 4,8 km/h (1 Bft) 97,87 %
21.10.2016 00:22 2,3 C 97 % 1013,9 hPa 0,0 l/m 2,6 km/h (1 Bft) SO 146 0 min 0,000 mm 0,0 UV-I 0 W/m 1,9 C 2,3 C 4,8 km/h (1 Bft) 97,87 %
21.10.2016 00:24 2,3 C 97 % 1013,9 hPa 0,0 l/m 2,8 km/h (1 Bft) SO 146 0 min 0,000 mm 0,0 UV-I 0 W/m 1,9 C 2,3 C 4,8 km/h (1 Bft) 97,87 %
21.10.2016 00:26 2,3 C 97 % 1013,9 hPa 0,0 l/m 1,5 km/h (1 Bft) SO 146 0 min 0,000 mm 0,0 UV-I 0 W/m 1,9 C 2,3 C 3,2 km/h (1 Bft) 97,87 %
21.10.2016 00:28 2,2 C 98 % 1014,0 hPa 0,0 l/m 1,6 km/h (1 Bft) SO 146 0 min 0,000 mm 0,0 UV-I 0 W/m 1,9 C 2,2 C 3,2 km/h (1 Bft) 97,87 %
21.10.2016 00:30 2,0 C 97 % 1013,9 hPa 0,0 l/m 0,7 km/h (0 Bft) SO 146 0 min 0,000 mm 0,0 UV-I 0 W/m 1,6 C 2,0 C 1,6 km/h (1 Bft) 100,00 %
21.10.2016 00:32 1,9 C 97 % 1013,9 hPa 0,0 l/m 1,6 km/h (1 Bft) SO 146 0 min 0,000 mm 0,0 UV-I 0 W/m 1,5 C 1,9 C 4,8 km/h (1 Bft) 100,00 %
21.10.2016 00:34 1,9 C 97 % 1013,9 hPa 0,0 l/m 5,0 km/h (1 Bft) SO 132 0 min 0,000 mm 0,0 UV-I 0 W/m 1,5 C 1,9 C 6,4 km/h (2 Bft) 100,00 %
21.10.2016 00:36 2,0 C 97 % 1014,0 hPa 0,0 l/m 5,2 km/h (1 Bft) SO 124 0 min 0,000 mm 0,0 UV-I 0 W/m 1,6 C 2,0 C 6,4 km/h (2 Bft) 100,00 %
21.10.2016 00:38 2,1 C 97 % 1014,0 hPa 0,0 l/m 5,2 km/h (1 Bft) SO 124 0 min 0,000 mm 0,0 UV-I 0 W/m 1,7 C 2,1 C 6,4 km/h (2 Bft) 100,00 %
21.10.2016 00:40 2,0 C 97 % 1014,0 hPa 0,0 l/m 3,7 km/h (1 Bft) SO 124 0 min 0,000 mm 0,0 UV-I 0 W/m 1,6 C 2,0 C 4,8 km/h (1 Bft) 100,00 %
21.10.2016 00:42 2,0 C 97 % 1014,0 hPa 0,0 l/m 3,2 km/h (1 Bft) SO 124 0 min 0,000 mm 0,0 UV-I 0 W/m 1,6 C 2,0 C 4,8 km/h (1 Bft) 97,87 %
21.10.2016 00:44 2,0 C 97 % 1014,0 hPa 0,0 l/m 3,1 km/h (1 Bft) SO 124 0 min 0,000 mm 0,0 UV-I 0 W/m 1,6 C 2,0 C 4,8 km/h (1 Bft) 97,87 %
21.10.2016 00:46 2,1 C 98 % 1014,0 hPa 0,0 l/m 2,4 km/h (1 Bft) SO 124 0 min 0,000 mm 0,0 UV-I 0 W/m 1,8 C 2,1 C 3,2 km/h (1 Bft) 100,00 %
21.10.2016 00:48 2,2 C 98 % 1014,0 hPa 0,0 l/m 2,2 km/h (1 Bft) SO 124 0 min 0,000 mm 0,0 UV-I 0 W/m 1,9 C 2,2 C 3,2 km/h (1 Bft) 97,87 %
21.10.2016 00:50 2,2 C 98 % 1014,1 hPa 0,0 l/m 2,5 km/h (1 Bft) SO 124 0 min 0,000 mm 0,0 UV-I 0 W/m 1,9 C 2,2 C 4,8 km/h (1 Bft) 100,00 %
21.10.2016 00:52 2,3 C 98 % 1014,0 hPa 0,0 l/m 3,6 km/h (1 Bft) SO 124 0 min 0,000 mm 0,0 UV-I 0 W/m 2,0 C 2,3 C 4,8 km/h (1 Bft) 100,00 %
21.10.2016 00:54 2,2 C 98 % 1014,0 hPa 0,0 l/m 3,4 km/h (1 Bft) SO 124 0 min 0,000 mm 0,0 UV-I 0 W/m 1,9 C 2,2 C 4,8 km/h (1 Bft) 97,87 %
21.10.2016 00:56 2,3 C 98 % 1014,0 hPa 0,0 l/m 2,4 km/h (1 Bft) SO 124 0 min 0,000 mm 0,0 UV-I 0 W/m 2,0 C 2,3 C 3,2 km/h (1 Bft) 100,00 %
21.10.2016 00:58 2,3 C 98 % 1014,0 hPa 0,0 l/m 1,1 km/h (1 Bft) SO 124 0 min 0,000 mm 0,0 UV-I 0 W/m 2,0 C 2,3 C 3,2 km/h (1 Bft) 100,00 %
21.10.2016 01:00 2,3 C 98 % 1014,0 hPa 0,0 l/m 2,0 km/h (1 Bft) SO 124 0 min 0,000 mm 0,0 UV-I 0 W/m 2,0 C 2,3 C 6,4 km/h (2 Bft) 100,00 %
21.10.2016 01:02 2,3 C 98 % 1013,9 hPa 0,0 l/m 4,3 km/h (1 Bft) SO 127 0 min 0,000 mm 0,0 UV-I 0 W/m 2,0 C 2,3 C 6,4 km/h (2 Bft) 97,87 %
21.10.2016 01:04 2,4 C 98 % 1014,0 hPa 0,0 l/m 4,6 km/h (1 Bft) S-SO 150 0 min 0,000 mm 0,0 UV-I 0 W/m 2,1 C 2,4 C 8,0 km/h (2 Bft) 100,00 %
21.10.2016 01:06 2,6 C 98 % 1013,9 hPa 0,0 l/m 5,1 km/h (1 Bft) SO 142 0 min 0,000 mm 0,0 UV-I 0 W/m 2,3 C 2,6 C 8,0 km/h (2 Bft) 100,00 %
21.10.2016 01:08 2,7 C 98 % 1014,0 hPa 0,0 l/m 4,4 km/h (1 Bft) SO 145 0 min 0,000 mm 0,0 UV-I 0 W/m 2,4 C 2,7 C 12,9 km/h (3 Bft) 100,00 %
21.10.2016 01:10 2,8 C 98 % 1013,9 hPa 0,0 l/m 5,2 km/h (1 Bft) O-SO 123 0 min 0,000 mm 0,0 UV-I 0 W/m 2,5 C 2,8 C 11,3 km/h (2 Bft) 95,74 %
21.10.2016 01:12 2,9 C 98 % 1013,9 hPa 0,0 l/m 4,3 km/h (1 Bft) SO 135 0 min 0,000 mm 0,0 UV-I 0 W/m 2,6 C 2,9 C 9,7 km/h (2 Bft) 97,87 %
21.10.2016 01:14 2,9 C 98 % 1013,9 hPa 0,0 l/m 3,5 km/h (1 Bft) SO 124 0 min 0,000 mm 0,0 UV-I 0 W/m 2,6 C 2,9 C 4,8 km/h (1 Bft) 100,00 %
21.10.2016 01:16 2,9 C 98 % 1013,9 hPa 0,0 l/m 1,2 km/h (1 Bft) SO 124 0 min 0,000 mm 0,0 UV-I 0 W/m 2,6 C 2,9 C 4,8 km/h (1 Bft) 100,00 %
21.10.2016 01:18 2,8 C 98 % 1013,9 hPa 0,0 l/m 0,3 km/h (0 Bft) SO 124 0 min 0,000 mm 0,0 UV-I 0 W/m 2,5 C 2,8 C 1,6 km/h (1 Bft) 100,00 %
21.10.2016 01:20 2,7 C 98 % 1014,0 hPa 0,0 l/m 0,4 km/h (0 Bft) SO 124 0 min 0,000 mm 0,0 UV-I 0 W/m 2,4 C 2,7 C 3,2 km/h (1 Bft) 100,00 %
21.10.2016 01:22 2,5 C 98 % 1014,0 hPa 0,0 l/m 1,5 km/h (1 Bft) SO 124 0 min 0,000 mm 0,0 UV-I 0 W/m 2,2 C 2,5 C 3,2 km/h (1 Bft) 100,00 %
21.10.2016 01:24 2,3 C 97 % 1014,0 hPa 0,0 l/m 0,6 km/h (0 Bft) SO 125 0 min 0,000 mm 0,0 UV-I 0 W/m 1,9 C 2,3 C 3,2 km/h (1 Bft) 100,00 %
21.10.2016 01:26 2,2 C 97 % 1013,9 hPa 0,0 l/m 0,0 km/h (0 Bft) SO 125 0 min 0,000 mm 0,0 UV-I 0 W/m 1,8 C 2,2 C 1,6 km/h (1 Bft) 97,87 %
21.10.2016 01:28 2,2 C 97 % 1013,9 hPa 0,0 l/m 0,0 km/h (0 Bft) SO 124 0 min 0,000 mm 0,0 UV-I 0 W/m 1,8 C 2,2 C 0,0 km/h (0 Bft) 95,74 %
21.10.2016 01:30 2,1 C 97 % 1013,9 hPa 0,0 l/m 0,0 km/h (0 Bft) SO 125 0 min 0,000 mm 0,0 UV-I 0 W/m 1,7 C 2,1 C 0,0 km/h (0 Bft) 100,00 %
21.10.2016 01:32 2,0 C 97 % 1013,9 hPa 0,0 l/m 0,0 km/h (0 Bft) SO 124 0 min 0,000 mm 0,0 UV-I 0 W/m 1,6 C 2,0 C 0,0 km/h (0 Bft) 100,00 %
21.10.2016 01:34 2,0 C 97 % 1013,9 hPa 0,0 l/m 0,0 km/h (0 Bft) SO 125 0 min 0,000 mm 0,0 UV-I 0 W/m 1,6 C 2,0 C 0,0 km/h (0 Bft) 95,74 %
21.10.2016 01:36 1,9 C 97 % 1013,9 hPa 0,0 l/m 0,0 km/h (0 Bft) SO 125 0 min 0,000 mm 0,0 UV-I 0 W/m 1,5 C 1,9 C 0,0 km/h (0 Bft) 95,74 %
21.10.2016 01:38 2,0 C 97 % 1013,9 hPa 0,0 l/m 0,0 km/h (0 Bft) SO 125 0 min 0,000 mm 0,0 UV-I 0 W/m 1,6 C 2,0 C 0,0 km/h (0 Bft) 95,74 %
21.10.2016 01:40 2,1 C 97 % 1013,9 hPa 0,0 l/m 0,0 km/h (0 Bft) SO 125 0 min 0,000 mm 0,0 UV-I 0 W/m 1,7 C 2,1 C 0,0 km/h (0 Bft) 95,83 %
21.10.2016 01:42 2,1 C 97 % 1013,9 hPa 0,0 l/m 0,0 km/h (0 Bft) SO 124 0 min 0,000 mm 0,0 UV-I 0 W/m 1,7 C 2,1 C 0,0 km/h (0 Bft) 97,37 %
21.10.2016 01:44 2,1 C 97 % 1013,9 hPa 0,0 l/m 0,0 km/h (0 Bft) SO 125 0 min 0,000 mm 0,0 UV-I 0 W/m 1,7 C 2,1 C 0,0 km/h (0 Bft) 95,74 %
21.10.2016 01:46 2,1 C 97 % 1013,9 hPa 0,0 l/m 0,0 km/h (0 Bft) SO 125 0 min 0,000 mm 0,0 UV-I 0 W/m 1,7 C 2,1 C 0,0 km/h (0 Bft) 98,00 %
21.10.2016 01:48 2,0 C 97 % 1013,9 hPa 0,0 l/m 0,0 km/h (0 Bft) SO 125 0 min 0,000 mm 0,0 UV-I 0 W/m 1,6 C 2,0 C 0,0 km/h (0 Bft) 97,87 %
21.10.2016 01:50 1,8 C 97 % 1013,9 hPa 0,0 l/m 0,0 km/h (0 Bft) SO 124 0 min 0,000 mm 0,0 UV-I 0 W/m 1,4 C 1,8 C 0,0 km/h (0 Bft) 95,74 %
21.10.2016 01:52 1,8 C 97 % 1013,9 hPa 0,0 l/m 0,0 km/h (0 Bft) SO 125 0 min 0,000 mm 0,0 UV-I 0 W/m 1,4 C 1,8 C 0,0 km/h (0 Bft) 95,74 %
21.10.2016 01:54 1,8 C 97 % 1013,9 hPa 0,0 l/m 0,0 km/h (0 Bft) SO 125 0 min 0,000 mm 0,0 UV-I 0 W/m 1,4 C 1,8 C 0,0 km/h (0 Bft) 96,00 %
21.10.2016 01:56 1,8 C 97 % 1013,9 hPa 0,0 l/m 0,0 km/h (0 Bft) SO 124 0 min 0,000 mm 0,0 UV-I 0 W/m 1,4 C 1,8 C 0,0 km/h (0 Bft) 97,87 %
21.10.2016 01:58 1,9 C 98 % 1013,9 hPa 0,0 l/m 0,8 km/h (0 Bft) SO 125 0 min 0,000 mm 0,0 UV-I 0 W/m 1,6 C 1,9 C 3,2 km/h (1 Bft) 97,87 %
21.10.2016 02:00 2,1 C 98 % 1013,9 hPa 0,0 l/m 2,2 km/h (1 Bft) SO 125 0 min 0,000 mm 0,0 UV-I 0 W/m 1,8 C 2,1 C 3,2 km/h (1 Bft) 97,87 %
21.10.2016 02:02 1,9 C 98 % 1013,9 hPa 0,0 l/m 3,1 km/h (1 Bft) SO 125 0 min 0,000 mm 0,0 UV-I 0 W/m 1,6 C 1,9 C 4,8 km/h (1 Bft) 97,87 %
21.10.2016 02:04 1,8 C 97 % 1013,9 hPa 0,0 l/m 2,3 km/h (1 Bft) SO 125 0 min 0,000 mm 0,0 UV-I 0 W/m 1,4 C 1,8 C 3,2 km/h (1 Bft) 97,87 %
21.10.2016 02:06 1,8 C 97 % 1013,9 hPa 0,0 l/m 1,2 km/h (1 Bft) SO 125 0 min 0,000 mm 0,0 UV-I 0 W/m 1,4 C 1,8 C 1,6 km/h (1 Bft) 97,37 %
21.10.2016 02:08 1,9 C 98 % 1013,9 hPa 0,0 l/m 0,3 km/h (0 Bft) SO 124 0 min 0,000 mm 0,0 UV-I 0 W/m 1,6 C 1,9 C 1,6 km/h (1 Bft) 97,87 %
21.10.2016 02:10 1,9 C 98 % 1013,9 hPa 0,0 l/m 0,0 km/h (0 Bft) SO 125 0 min 0,000 mm 0,0 UV-I 0 W/m 1,6 C 1,9 C 0,0 km/h (0 Bft) 95,74 %
21.10.2016 02:12 2,0 C 98 % 1013,9 hPa 0,0 l/m 0,0 km/h (0 Bft) SO 124 0 min 0,000 mm 0,0 UV-I 0 W/m 1,7 C 2,0 C 1,6 km/h (1 Bft) 100,00 %
21.10.2016 02:14 1,9 C 98 % 1013,9 hPa 0,0 l/m 0,0 km/h (0 Bft) SO 125 0 min 0,000 mm 0,0 UV-I 0 W/m 1,6 C 1,9 C 0,0 km/h (0 Bft) 98,00 %
21.10.2016 02:16 1,9 C 98 % 1013,9 hPa 0,0 l/m 0,2 km/h (0 Bft) SO 125 0 min 0,000 mm 0,0 UV-I 0 W/m 1,6 C 1,9 C 1,6 km/h (1 Bft) 100,00 %
21.10.2016 02:18 1,8 C 97 % 1013,9 hPa 0,0 l/m 0,5 km/h (0 Bft) SO 125 0 min 0,000 mm 0,0 UV-I 0 W/m 1,4 C 1,8 C 1,6 km/h (1 Bft) 97,92 %
21.10.2016 02:20 1,7 C 97 % 1013,8 hPa 0,0 l/m 0,0 km/h (0 Bft) SO 125 0 min 0,000 mm 0,0 UV-I 0 W/m 1,3 C 1,7 C 0,0 km/h (0 Bft) 100,00 %
21.10.2016 02:22 1,7 C 97 % 1013,8 hPa 0,0 l/m 0,0 km/h (0 Bft) SO 125 0 min 0,000 mm 0,0 UV-I 0 W/m 1,3 C 1,7 C 0,0 km/h (0 Bft) 97,87 %
21.10.2016 02:24 1,7 C 97 % 1013,8 hPa 0,0 l/m 0,0 km/h (0 Bft) SO 124 0 min 0,000 mm 0,0 UV-I 0 W/m 1,3 C 1,7 C 0,0 km/h (0 Bft) 100,00 %
21.10.2016 02:26 1,7 C 97 % 1013,9 hPa 0,0 l/m 0,0 km/h (0 Bft) SO 125 0 min 0,000 mm 0,0 UV-I 0 W/m 1,3 C 1,7 C 0,0 km/h (0 Bft) 97,87 %
21.10.2016 02:28 1,6 C 97 % 1013,7 hPa 0,0 l/m 0,0 km/h (0 Bft) SO 125 0 min 0,000 mm 0,0 UV-I 0 W/m 1,2 C 1,6 C 0,0 km/h (0 Bft) 100,00 %
21.10.2016 02:30 1,6 C 97 % 1013,7 hPa 0,0 l/m 0,0 km/h (0 Bft) SO 124 0 min 0,000 mm 0,0 UV-I 0 W/m 1,2 C 1,6 C 0,0 km/h (0 Bft) 97,87 %
21.10.2016 02:32 1,7 C 98 % 1013,7 hPa 0,0 l/m 0,0 km/h (0 Bft) SO 125 0 min 0,000 mm 0,0 UV-I 0 W/m 1,4 C 1,7 C 0,0 km/h (0 Bft) 100,00 %
21.10.2016 02:34 1,7 C 98 % 1013,8 hPa 0,0 l/m 0,0 km/h (0 Bft) SO 124 0 min 0,000 mm 0,0 UV-I 0 W/m 1,4 C 1,7 C 1,6 km/h (1 Bft) 100,00 %
21.10.2016 02:36 1,6 C 98 % 1013,8 hPa 0,0 l/m 0,5 km/h (0 Bft) SO 125 0 min 0,000 mm 0,0 UV-I 0 W/m 1,3 C 1,6 C 1,6 km/h (1 Bft) 100,00 %
21.10.2016 02:38 1,6 C 98 % 1013,9 hPa 0,0 l/m 0,0 km/h (0 Bft) SO 124 0 min 0,000 mm 0,0 UV-I 0 W/m 1,3 C 1,6 C 0,0 km/h (0 Bft) 95,74 %
21.10.2016 02:40 1,6 C 98 % 1013,9 hPa 0,0 l/m 0,0 km/h (0 Bft) SO 124 0 min 0,000 mm 0,0 UV-I 0 W/m 1,3 C 1,6 C 0,0 km/h (0 Bft) 97,37 %
21.10.2016 02:42 1,5 C 98 % 1013,9 hPa 0,0 l/m 0,0 km/h (0 Bft) SO 124 0 min 0,000 mm 0,0 UV-I 0 W/m 1,2 C 1,5 C 0,0 km/h (0 Bft) 100,00 %
21.10.2016 02:44 1,4 C 98 % 1013,9 hPa 0,0 l/m 0,1 km/h (0 Bft) SO 125 0 min 0,000 mm 0,0 UV-I 0 W/m 1,1 C 1,4 C 1,6 km/h (1 Bft) 97,87 %
21.10.2016 02:46 1,3 C 97 % 1013,9 hPa 0,0 l/m 1,9 km/h (1 Bft) SO 125 0 min 0,000 mm 0,0 UV-I 0 W/m 0,9 C 1,3 C 3,2 km/h (1 Bft) 100,00 %
21.10.2016 02:48 1,3 C 97 % 1013,9 hPa 0,0 l/m 3,1 km/h (1 Bft) SO 124 0 min 0,000 mm 0,0 UV-I 0 W/m 0,9 C 1,3 C 4,8 km/h (1 Bft) 100,00 %
21.10.2016 02:50 1,2 C 97 % 1013,9 hPa 0,0 l/m 3,1 km/h (1 Bft) SO 124 0 min 0,000 mm 0,0 UV-I 0 W/m 0,8 C 1,2 C 3,2 km/h (1 Bft) 95,74 %
21.10.2016 02:52 1,1 C 97 % 1013,9 hPa 0,0 l/m 3,1 km/h (1 Bft) SO 124 0 min 0,000 mm 0,0 UV-I 0 W/m 0,7 C 1,1 C 4,8 km/h (1 Bft) 100,00 %
21.10.2016 02:54 1,2 C 97 % 1013,9 hPa 0,0 l/m 2,3 km/h (1 Bft) SO 125 0 min 0,000 mm 0,0 UV-I 0 W/m 0,8 C 1,2 C 3,2 km/h (1 Bft) 100,00 %
21.10.2016 02:56 1,1 C 97 % 1013,9 hPa 0,0 l/m 0,2 km/h (0 Bft) SO 124 0 min 0,000 mm 0,0 UV-I 0 W/m 0,7 C 1,1 C 1,6 km/h (1 Bft) 100,00 %
21.10.2016 02:58 1,2 C 98 % 1013,9 hPa 0,0 l/m 1,4 km/h (1 Bft) SO 124 0 min 0,000 mm 0,0 UV-I 0 W/m 0,9 C 1,2 C 3,2 km/h (1 Bft) 97,87 %
21.10.2016 03:00 1,3 C 98 % 1013,8 hPa 0,0 l/m 0,3 km/h (0 Bft) SO 125 0 min 0,000 mm 0,0 UV-I 0 W/m 1,0 C 1,3 C 1,6 km/h (1 Bft) 100,00 %
21.10.2016 03:02 1,4 C 98 % 1013,9 hPa 0,0 l/m 0,0 km/h (0 Bft) SO 125 0 min 0,000 mm 0,0 UV-I 0 W/m 1,1 C 1,4 C 0,0 km/h (0 Bft) 100,00 %
21.10.2016 03:04 1,5 C 98 % 1013,8 hPa 0,0 l/m 0,0 km/h (0 Bft) SO 124 0 min 0,000 mm 0,0 UV-I 0 W/m 1,2 C 1,5 C 0,0 km/h (0 Bft) 100,00 %
21.10.2016 03:06 1,6 C 98 % 1013,8 hPa 0,0 l/m 0,7 km/h (0 Bft) SO 125 0 min 0,000 mm 0,0 UV-I 0 W/m 1,3 C 1,6 C 1,6 km/h (1 Bft) 97,87 %
21.10.2016 03:08 1,6 C 98 % 1013,7 hPa 0,0 l/m 0,6 km/h (0 Bft) SO 124 0 min 0,000 mm 0,0 UV-I 0 W/m 1,3 C 1,6 C 3,2 km/h (1 Bft) 100,00 %
21.10.2016 03:10 1,5 C 98 % 1013,8 hPa 0,0 l/m 0,1 km/h (0 Bft) SO 125 0 min 0,000 mm 0,0 UV-I 0 W/m 1,2 C 1,5 C 1,6 km/h (1 Bft) 100,00 %
21.10.2016 03:12 1,3 C 98 % 1013,9 hPa 0,0 l/m 1,6 km/h (1 Bft) SO 125 0 min 0,000 mm 0,0 UV-I 0 W/m 1,0 C 1,3 C 3,2 km/h (1 Bft) 100,00 %
21.10.2016 03:14 1,3 C 98 % 1013,8 hPa 0,0 l/m 2,0 km/h (1 Bft) SO 125 0 min 0,000 mm 0,0 UV-I 0 W/m 1,0 C 1,3 C 3,2 km/h (1 Bft) 97,96 %
21.10.2016 03:16 1,2 C 97 % 1013,9 hPa 0,0 l/m 1,7 km/h (1 Bft) SO 125 0 min 0,000 mm 0,0 UV-I 0 W/m 0,8 C 1,2 C 3,2 km/h (1 Bft) 100,00 %
21.10.2016 03:18 1,2 C 98 % 1013,8 hPa 0,0 l/m 2,6 km/h (1 Bft) SO 124 0 min 0,000 mm 0,0 UV-I 0 W/m 0,9 C 1,2 C 4,8 km/h (1 Bft) 100,00 %
21.10.2016 03:20 1,1 C 97 % 1013,8 hPa 0,0 l/m 3,3 km/h (1 Bft) SO 124 0 min 0,000 mm 0,0 UV-I 0 W/m 0,7 C 1,1 C 4,8 km/h (1 Bft) 97,87 %
21.10.2016 03:22 1,1 C 97 % 1013,8 hPa 0,0 l/m 3,1 km/h (1 Bft) SO 125 0 min 0,000 mm 0,0 UV-I 0 W/m 0,7 C 1,1 C 4,8 km/h (1 Bft) 100,00 %
21.10.2016 03:24 1,1 C 97 % 1013,8 hPa 0,0 l/m 2,8 km/h (1 Bft) SO 124 0 min 0,000 mm 0,0 UV-I 0 W/m 0,7 C 1,1 C 4,8 km/h (1 Bft) 100,00 %
21.10.2016 03:26 1,1 C 97 % 1013,9 hPa 0,0 l/m 1,5 km/h (1 Bft) SO 125 0 min 0,000 mm 0,0 UV-I 0 W/m 0,7 C 1,1 C 3,2 km/h (1 Bft) 100,00 %
21.10.2016 03:28 1,2 C 98 % 1013,9 hPa 0,0 l/m 0,4 km/h (0 Bft) SO 125 0 min 0,000 mm 0,0 UV-I 0 W/m 0,9 C 1,2 C 3,2 km/h (1 Bft) 100,00 %
21.10.2016 03:30 1,3 C 98 % 1013,9 hPa 0,0 l/m 0,5 km/h (0 Bft) SO 124 0 min 0,000 mm 0,0 UV-I 0 W/m 1,0 C 1,3 C 3,2 km/h (1 Bft) 100,00 %
21.10.2016 03:32 1,3 C 98 % 1013,9 hPa 0,0 l/m 2,4 km/h (1 Bft) SO 124 0 min 0,000 mm 0,0 UV-I 0 W/m 1,0 C 1,3 C 3,2 km/h (1 Bft) 97,87 %
21.10.2016 03:34 1,3 C 98 % 1013,9 hPa 0,0 l/m 2,8 km/h (1 Bft) SO 124 0 min 0,000 mm 0,0 UV-I 0 W/m 1,0 C 1,3 C 4,8 km/h (1 Bft) 97,87 %
21.10.2016 03:36 1,3 C 98 % 1013,9 hPa 0,0 l/m 3,5 km/h (1 Bft) SO 124 0 min 0,000 mm 0,0 UV-I 0 W/m 1,0 C 1,3 C 4,8 km/h (1 Bft) 93,62 %
21.10.2016 03:38 1,4 C 98 % 1013,8 hPa 0,0 l/m 1,2 km/h (1 Bft) SO 124 0 min 0,000 mm 0,0 UV-I 0 W/m 1,1 C 1,4 C 3,2 km/h (1 Bft) 95,83 %
21.10.2016 03:40 1,4 C 98 % 1013,9 hPa 0,0 l/m 0,2 km/h (0 Bft) SO 125 0 min 0,000 mm 0,0 UV-I 0 W/m 1,1 C 1,4 C 1,6 km/h (1 Bft) 97,87 %
21.10.2016 03:42 1,5 C 98 % 1013,9 hPa 0,0 l/m 2,5 km/h (1 Bft) W-NW 282 0 min 0,000 mm 0,0 UV-I 0 W/m 1,2 C 1,5 C 4,8 km/h (1 Bft) 97,87 %
21.10.2016 03:44 1,4 C 98 % 1013,9 hPa 0,0 l/m 1,1 km/h (1 Bft) W-NW 283 0 min 0,000 mm 0,0 UV-I 0 W/m 1,1 C 1,4 C 3,2 km/h (1 Bft) 97,87 %
21.10.2016 03:46 1,2 C 98 % 1013,9 hPa 0,0 l/m 1,1 km/h (1 Bft) W-NW 284 0 min 0,000 mm 0,0 UV-I 0 W/m 0,9 C 1,2 C 3,2 km/h (1 Bft) 97,87 %
21.10.2016 03:48 1,0 C 97 % 1013,8 hPa 0,0 l/m 1,0 km/h (0 Bft) W-NW 284 0 min 0,000 mm 0,0 UV-I 0 W/m 0,6 C 1,0 C 3,2 km/h (1 Bft) 97,87 %
21.10.2016 03:50 1,0 C 97 % 1013,8 hPa 0,0 l/m 0,0 km/h (0 Bft) W-NW 284 0 min 0,000 mm 0,0 UV-I 0 W/m 0,6 C 1,0 C 0,0 km/h (0 Bft) 94,29 %
21.10.2016 03:52 1,0 C 98 % 1013,9 hPa 0,0 l/m 0,0 km/h (0 Bft) W-NW 284 0 min 0,000 mm 0,0 UV-I 0 W/m 0,7 C 1,0 C 0,0 km/h (0 Bft) 95,83 %
21.10.2016 03:54 1,0 C 98 % 1013,7 hPa 0,0 l/m 0,0 km/h (0 Bft) W-NW 284 0 min 0,000 mm 0,0 UV-I 0 W/m 0,7 C 1,0 C 0,0 km/h (0 Bft) 94,00 %
21.10.2016 03:56 1,0 C 98 % 1013,8 hPa 0,0 l/m 0,0 km/h (0 Bft) W-NW 284 0 min 0,000 mm 0,0 UV-I 0 W/m 0,7 C 1,0 C 0,0 km/h (0 Bft) 97,87 %
21.10.2016 03:58 0,9 C 98 % 1013,8 hPa 0,0 l/m 0,0 km/h (0 Bft) W-NW 284 0 min 0,000 mm 0,0 UV-I 0 W/m 0,6 C 0,9 C 0,0 km/h (0 Bft) 97,87 %
21.10.2016 04:00 0,9 C 98 % 1013,8 hPa 0,0 l/m 0,0 km/h (0 Bft) W-NW 284 0 min 0,000 mm 0,0 UV-I 0 W/m 0,6 C 0,9 C 0,0 km/h (0 Bft) 97,87 %
21.10.2016 04:02 1,1 C 98 % 1013,7 hPa 0,0 l/m 1,4 km/h (1 Bft) W-NW 284 0 min 0,000 mm 0,0 UV-I 0 W/m 0,8 C 1,1 C 3,2 km/h (1 Bft) 97,14 %
21.10.2016 04:04 1,0 C 98 % 1013,8 hPa 0,0 l/m 1,3 km/h (1 Bft) W-NW 284 0 min 0,000 mm 0,0 UV-I 0 W/m 0,7 C 1,0 C 3,2 km/h (1 Bft) 95,74 %
21.10.2016 04:06 0,8 C 98 % 1013,8 hPa 0,0 l/m 0,9 km/h (0 Bft) W-NW 284 0 min 0,000 mm 0,0 UV-I 0 W/m 0,5 C 0,8 C 3,2 km/h (1 Bft) 97,87 %
21.10.2016 04:08 0,8 C 97 % 1013,8 hPa 0,0 l/m 0,0 km/h (0 Bft) W-NW 284 0 min 0,000 mm 0,0 UV-I 0 W/m 0,4 C 0,8 C 0,0 km/h (0 Bft) 97,87 %
21.10.2016 04:10 0,8 C 97 % 1013,7 hPa 0,0 l/m 0,0 km/h (0 Bft) W-NW 284 0 min 0,000 mm 0,0 UV-I 0 W/m 0,4 C 0,8 C 0,0 km/h (0 Bft) 95,74 %
21.10.2016 04:12 0,9 C 98 % 1013,7 hPa 0,0 l/m 0,0 km/h (0 Bft) W-NW 284 0 min 0,000 mm 0,0 UV-I 0 W/m 0,6 C 0,9 C 0,0 km/h (0 Bft) 97,87 %
21.10.2016 04:14 1,0 C 98 % 1013,7 hPa 0,0 l/m 0,0 km/h (0 Bft) W-NW 284 0 min 0,000 mm 0,0 UV-I 0 W/m 0,7 C 1,0 C 0,0 km/h (0 Bft) 97,87 %
21.10.2016 04:16 1,0 C 98 % 1013,7 hPa 0,0 l/m 1,1 km/h (1 Bft) W-NW 284 0 min 0,000 mm 0,0 UV-I 0 W/m 0,7 C 1,0 C 3,2 km/h (1 Bft) 100,00 %
21.10.2016 04:18 1,0 C 98 % 1013,7 hPa 0,0 l/m 0,3 km/h (0 Bft) W-NW 284 0 min 0,000 mm 0,0 UV-I 0 W/m 0,7 C 1,0 C 1,6 km/h (1 Bft) 100,00 %
21.10.2016 04:20 1,0 C 98 % 1013,7 hPa 0,0 l/m 0,2 km/h (0 Bft) W-NW 284 0 min 0,000 mm 0,0 UV-I 0 W/m 0,7 C 1,0 C 1,6 km/h (1 Bft) 100,00 %
21.10.2016 04:22 0,9 C 98 % 1013,7 hPa 0,0 l/m 0,0 km/h (0 Bft) W-NW 284 0 min 0,000 mm 0,0 UV-I 0 W/m 0,6 C 0,9 C 1,6 km/h (1 Bft) 100,00 %
21.10.2016 04:24 0,8 C 98 % 1013,7 hPa 0,0 l/m 1,5 km/h (1 Bft) W-NW 284 0 min 0,000 mm 0,0 UV-I 0 W/m 0,5 C 0,8 C 3,2 km/h (1 Bft) 97,87 %
21.10.2016 04:26 0,8 C 98 % 1013,7 hPa 0,0 l/m 1,7 km/h (1 Bft) W-NW 285 0 min 0,000 mm 0,0 UV-I 0 W/m 0,5 C 0,8 C 3,2 km/h (1 Bft) 97,14 %
21.10.2016 04:28 0,8 C 98 % 1013,7 hPa 0,0 l/m 1,5 km/h (1 Bft) W-NW 285 0 min 0,000 mm 0,0 UV-I 0 W/m 0,5 C 0,8 C 3,2 km/h (1 Bft) 97,87 %
21.10.2016 04:30 0,8 C 98 % 1013,7 hPa 0,0 l/m 1,7 km/h (1 Bft) W-NW 290 0 min 0,000 mm 0,0 UV-I 0 W/m 0,5 C 0,8 C 3,2 km/h (1 Bft) 100,00 %
21.10.2016 04:32 0,9 C 98 % 1013,7 hPa 0,0 l/m 0,2 km/h (0 Bft) W-NW 290 0 min 0,000 mm 0,0 UV-I 0 W/m 0,6 C 0,9 C 1,6 km/h (1 Bft) 100,00 %
21.10.2016 04:34 0,9 C 98 % 1013,6 hPa 0,0 l/m 0,9 km/h (0 Bft) SW 221 0 min 0,000 mm 0,0 UV-I 0 W/m 0,6 C 0,9 C 3,2 km/h (1 Bft) 100,00 %
21.10.2016 04:36 1,0 C 98 % 1013,6 hPa 0,0 l/m 0,3 km/h (0 Bft) SW 221 0 min 0,000 mm 0,0 UV-I 0 W/m 0,7 C 1,0 C 1,6 km/h (1 Bft) 100,00 %
21.10.2016 04:38 1,1 C 98 % 1013,6 hPa 0,0 l/m 0,5 km/h (0 Bft) SW 221 0 min 0,000 mm 0,0 UV-I 0 W/m 0,8 C 1,1 C 3,2 km/h (1 Bft) 100,00 %
21.10.2016 04:40 1,0 C 98 % 1013,5 hPa 0,0 l/m 3,1 km/h (1 Bft) S-SO 166 0 min 0,000 mm 0,0 UV-I 0 W/m 0,7 C 1,0 C 6,4 km/h (2 Bft) 100,00 %
21.10.2016 04:42 0,9 C 98 % 1013,6 hPa 0,0 l/m 1,0 km/h (0 Bft) S-SO 166 0 min 0,000 mm 0,0 UV-I 0 W/m 0,6 C 0,9 C 4,8 km/h (1 Bft) 96,00 %
21.10.2016 04:44 0,9 C 98 % 1013,6 hPa 0,0 l/m 0,3 km/h (0 Bft) S-SO 166 0 min 0,000 mm 0,0 UV-I 0 W/m 0,6 C 0,9 C 1,6 km/h (1 Bft) 100,00 %
21.10.2016 04:46 0,9 C 98 % 1013,6 hPa 0,0 l/m 0,5 km/h (0 Bft) S-SO 166 0 min 0,000 mm 0,0 UV-I 0 W/m 0,6 C 0,9 C 1,6 km/h (1 Bft) 100,00 %
21.10.2016 04:48 0,9 C 98 % 1013,5 hPa 0,0 l/m 0,0 km/h (0 Bft) S-SO 166 0 min 0,000 mm 0,0 UV-I 0 W/m 0,6 C 0,9 C 0,0 km/h (0 Bft) 100,00 %
21.10.2016 04:50 0,9 C 98 % 1013,5 hPa 0,0 l/m 0,0 km/h (0 Bft) S-SO 166 0 min 0,000 mm 0,0 UV-I 0 W/m 0,6 C 0,9 C 0,0 km/h (0 Bft) 100,00 %
21.10.2016 04:52 0,8 C 98 % 1013,6 hPa 0,0 l/m 0,0 km/h (0 Bft) S-SO 166 0 min 0,000 mm 0,0 UV-I 0 W/m 0,5 C 0,8 C 0,0 km/h (0 Bft) 100,00 %
21.10.2016 04:54 0,7 C 98 % 1013,5 hPa 0,0 l/m 0,1 km/h (0 Bft) S-SO 166 0 min 0,000 mm 0,0 UV-I 0 W/m 0,4 C 0,7 C 1,6 km/h (1 Bft) 100,00 %
21.10.2016 04:56 0,6 C 98 % 1013,5 hPa 0,0 l/m 3,0 km/h (1 Bft) O 82 0 min 0,000 mm 0,0 UV-I 0 W/m 0,3 C 0,6 C 4,8 km/h (1 Bft) 100,00 %
21.10.2016 04:58 0,5 C 97 % 1013,5 hPa 0,0 l/m 2,9 km/h (1 Bft) O 82 0 min 0,000 mm 0,0 UV-I 0 W/m 0,1 C 0,5 C 4,8 km/h (1 Bft) 98,00 %
21.10.2016 05:00 0,6 C 97 % 1013,6 hPa 0,0 l/m 1,8 km/h (1 Bft) O 82 0 min 0,000 mm 0,0 UV-I 0 W/m 0,2 C 0,6 C 4,8 km/h (1 Bft) 97,87 %
21.10.2016 05:02 0,6 C 98 % 1013,5 hPa 0,0 l/m 1,4 km/h (1 Bft) O 82 0 min 0,000 mm 0,0 UV-I 0 W/m 0,3 C 0,6 C 3,2 km/h (1 Bft) 97,87 %
21.10.2016 05:04 0,6 C 98 % 1013,5 hPa 0,0 l/m 1,1 km/h (1 Bft) O 82 0 min 0,000 mm 0,0 UV-I 0 W/m 0,3 C 0,6 C 1,6 km/h (1 Bft) 100,00 %
21.10.2016 05:06 0,7 C 98 % 1013,5 hPa 0,0 l/m 0,7 km/h (0 Bft) O 82 0 min 0,000 mm 0,0 UV-I 0 W/m 0,4 C 0,7 C 1,6 km/h (1 Bft) 100,00 %
21.10.2016 05:08 0,7 C 98 % 1013,5 hPa 0,0 l/m 2,6 km/h (1 Bft) O 82 0 min 0,000 mm 0,0 UV-I 0 W/m 0,4 C 0,7 C 4,8 km/h (1 Bft) 100,00 %
21.10.2016 05:10 0,8 C 98 % 1013,4 hPa 0,0 l/m 3,4 km/h (1 Bft) O 81 0 min 0,000 mm 0,0 UV-I 0 W/m 0,5 C 0,8 C 4,8 km/h (1 Bft) 100,00 %
21.10.2016 05:12 0,9 C 98 % 1013,5 hPa 0,0 l/m 3,2 km/h (1 Bft) O 92 0 min 0,000 mm 0,0 UV-I 0 W/m 0,6 C 0,9 C 4,8 km/h (1 Bft) 100,00 %
21.10.2016 05:14 0,9 C 98 % 1013,5 hPa 0,0 l/m 0,2 km/h (0 Bft) O 92 0 min 0,000 mm 0,0 UV-I 0 W/m 0,6 C 0,9 C 1,6 km/h (1 Bft) 100,00 %
21.10.2016 05:16 0,8 C 98 % 1013,5 hPa 0,0 l/m 0,4 km/h (0 Bft) O 92 0 min 0,000 mm 0,0 UV-I 0 W/m 0,5 C 0,8 C 1,6 km/h (1 Bft) 95,74 %
21.10.2016 05:18 0,7 C 98 % 1013,5 hPa 0,0 l/m 1,0 km/h (0 Bft) O 92 0 min 0,000 mm 0,0 UV-I 0 W/m 0,4 C 0,7 C 3,2 km/h (1 Bft) 97,37 %
21.10.2016 05:20 0,6 C 98 % 1013,5 hPa 0,0 l/m 0,2 km/h (0 Bft) O 92 0 min 0,000 mm 0,0 UV-I 0 W/m 0,3 C 0,6 C 1,6 km/h (1 Bft) 100,00 %
21.10.2016 05:22 0,4 C 97 % 1013,4 hPa 0,0 l/m 0,1 km/h (0 Bft) O 92 0 min 0,000 mm 0,0 UV-I 0 W/m -0,0 C 0,4 C 1,6 km/h (1 Bft) 100,00 %
21.10.2016 05:24 0,4 C 97 % 1013,4 hPa 0,0 l/m 0,0 km/h (0 Bft) O 92 0 min 0,000 mm 0,0 UV-I 0 W/m -0,0 C 0,4 C 1,6 km/h (1 Bft) 100,00 %
21.10.2016 05:26 0,4 C 98 % 1013,4 hPa 0,0 l/m 0,0 km/h (0 Bft) O 92 0 min 0,000 mm 0,0 UV-I 0 W/m 0,1 C 0,4 C 0,0 km/h (0 Bft) 100,00 %
21.10.2016 05:28 0,5 C 98 % 1013,4 hPa 0,0 l/m 0,0 km/h (0 Bft) O 92 0 min 0,000 mm 0,0 UV-I 0 W/m 0,2 C 0,5 C 0,0 km/h (0 Bft) 97,87 %
21.10.2016 05:30 0,4 C 98 % 1013,4 hPa 0,0 l/m 0,9 km/h (0 Bft) O 92 0 min 0,000 mm 0,0 UV-I 0 W/m 0,1 C 0,4 C 3,2 km/h (1 Bft) 95,74 %
21.10.2016 05:32 0,4 C 98 % 1013,3 hPa 0,0 l/m 2,8 km/h (1 Bft) O 92 0 min 0,000 mm 0,0 UV-I 0 W/m 0,1 C 0,4 C 4,8 km/h (1 Bft) 100,00 %
21.10.2016 05:34 0,6 C 98 % 1013,3 hPa 0,0 l/m 2,0 km/h (1 Bft) O 92 0 min 0,000 mm 0,0 UV-I 0 W/m 0,3 C 0,6 C 3,2 km/h (1 Bft) 100,00 %
21.10.2016 05:36 0,7 C 98 % 1013,4 hPa 0,0 l/m 1,7 km/h (1 Bft) O 92 0 min 0,000 mm 0,0 UV-I 0 W/m 0,4 C 0,7 C 3,2 km/h (1 Bft) 95,74 %
21.10.2016 05:38 0,7 C 98 % 1013,4 hPa 0,0 l/m 1,7 km/h (1 Bft) O 92 0 min 0,000 mm 0,0 UV-I 0 W/m 0,4 C 0,7 C 3,2 km/h (1 Bft) 97,87 %
21.10.2016 05:40 0,7 C 98 % 1013,4 hPa 0,0 l/m 2,5 km/h (1 Bft) O 92 0 min 0,000 mm 0,0 UV-I 0 W/m 0,4 C 0,7 C 3,2 km/h (1 Bft) 100,00 %
21.10.2016 05:42 0,8 C 98 % 1013,4 hPa 0,0 l/m 2,3 km/h (1 Bft) O 92 0 min 0,000 mm 0,0 UV-I 0 W/m 0,5 C 0,8 C 3,2 km/h (1 Bft) 100,00 %
21.10.2016 05:44 0,8 C 98 % 1013,3 hPa 0,0 l/m 2,6 km/h (1 Bft) O 92 0 min 0,000 mm 0,0 UV-I 0 W/m 0,5 C 0,8 C 3,2 km/h (1 Bft) 100,00 %
21.10.2016 05:46 0,8 C 98 % 1013,3 hPa 0,0 l/m 1,0 km/h (0 Bft) O 92 0 min 0,000 mm 0,0 UV-I 0 W/m 0,5 C 0,8 C 3,2 km/h (1 Bft) 95,74 %
21.10.2016 05:48 0,8 C 98 % 1013,3 hPa 0,0 l/m 1,5 km/h (1 Bft) O 92 0 min 0,000 mm 0,0 UV-I 0 W/m 0,5 C 0,8 C 3,2 km/h (1 Bft) 95,74 %
21.10.2016 05:50 0,7 C 98 % 1013,3 hPa 0,0 l/m 1,1 km/h (1 Bft) O 92 0 min 0,000 mm 0,0 UV-I 0 W/m 0,4 C 0,7 C 3,2 km/h (1 Bft) 95,74 %
21.10.2016 05:52 0,6 C 98 % 1013,3 hPa 0,0 l/m 2,4 km/h (1 Bft) O 92 0 min 0,000 mm 0,0 UV-I 0 W/m 0,3 C 0,6 C 3,2 km/h (1 Bft) 97,87 %
21.10.2016 05:54 0,6 C 98 % 1013,4 hPa 0,0 l/m 2,0 km/h (1 Bft) O 92 0 min 0,000 mm 0,0 UV-I 0 W/m 0,3 C 0,6 C 3,2 km/h (1 Bft) 95,74 %
21.10.2016 05:56 0,6 C 98 % 1013,4 hPa 0,0 l/m 0,4 km/h (0 Bft) O 92 0 min 0,000 mm 0,0 UV-I 0 W/m 0,3 C 0,6 C 1,6 km/h (1 Bft) 95,74 %
21.10.2016 05:58 0,6 C 98 % 1013,4 hPa 0,0 l/m 1,0 km/h (0 Bft) O 92 0 min 0,000 mm 0,0 UV-I 0 W/m 0,3 C 0,6 C 3,2 km/h (1 Bft) 97,87 %
21.10.2016 06:00 0,5 C 98 % 1013,3 hPa 0,0 l/m 3,2 km/h (1 Bft) O 90 0 min 0,000 mm 0,0 UV-I 0 W/m 0,2 C 0,5 C 4,8 km/h (1 Bft) 93,62 %
21.10.2016 06:02 0,6 C 98 % 1013,3 hPa 0,0 l/m 4,5 km/h (1 Bft) O-NO 66 0 min 0,000 mm 0,0 UV-I 0 W/m 0,3 C 0,6 C 6,4 km/h (2 Bft) 97,87 %
21.10.2016 06:04 0,7 C 98 % 1013,3 hPa 0,0 l/m 3,8 km/h (1 Bft) O-NO 65 0 min 0,000 mm 0,0 UV-I 0 W/m 0,4 C 0,7 C 4,8 km/h (1 Bft) 95,74 %
21.10.2016 06:06 0,8 C 98 % 1013,3 hPa 0,0 l/m 3,9 km/h (1 Bft) NO 35 0 min 0,000 mm 0,0 UV-I 0 W/m 0,5 C 0,8 C 6,4 km/h (2 Bft) 95,74 %
21.10.2016 06:08 0,8 C 98 % 1013,3 hPa 0,0 l/m 5,0 km/h (1 Bft) NO 39 0 min 0,000 mm 0,0 UV-I 0 W/m 0,5 C 0,8 C 8,0 km/h (2 Bft) 97,87 %
21.10.2016 06:10 0,7 C 98 % 1013,3 hPa 0,0 l/m 5,8 km/h (2 Bft) NO 41 0 min 0,000 mm 0,0 UV-I 0 W/m 0,4 C 0,7 C 8,0 km/h (2 Bft) 97,87 %
21.10.2016 06:12 0,7 C 98 % 1013,3 hPa 0,0 l/m 4,1 km/h (1 Bft) N-NO 22 0 min 0,000 mm 0,0 UV-I 0 W/m 0,4 C 0,7 C 6,4 km/h (2 Bft) 95,74 %
21.10.2016 06:14 0,7 C 98 % 1013,3 hPa 0,0 l/m 1,3 km/h (1 Bft) N-NO 18 0 min 0,000 mm 0,0 UV-I 0 W/m 0,4 C 0,7 C 3,2 km/h (1 Bft) 97,87 %
21.10.2016 06:16 0,7 C 98 % 1013,3 hPa 0,0 l/m 0,0 km/h (0 Bft) N-NO 18 0 min 0,000 mm 0,0 UV-I 0 W/m 0,4 C 0,7 C 0,0 km/h (0 Bft) 97,92 %
21.10.2016 06:18 0,6 C 98 % 1013,2 hPa 0,0 l/m 2,1 km/h (1 Bft) N-NO 19 0 min 0,000 mm 0,0 UV-I 0 W/m 0,3 C 0,6 C 4,8 km/h (1 Bft) 97,87 %
21.10.2016 06:20 0,6 C 98 % 1013,2 hPa 0,0 l/m 5,3 km/h (1 Bft) N-NO 31 0 min 0,000 mm 0,0 UV-I 0 W/m 0,3 C 0,6 C 6,4 km/h (2 Bft) 95,74 %
21.10.2016 06:22 0,5 C 98 % 1013,3 hPa 0,0 l/m 3,8 km/h (1 Bft) N-NO 28 0 min 0,000 mm 0,0 UV-I 0 W/m 0,2 C 0,5 C 6,4 km/h (2 Bft) 95,74 %
21.10.2016 06:24 0,5 C 98 % 1013,3 hPa 0,0 l/m 0,3 km/h (0 Bft) N-NO 28 0 min 0,000 mm 0,0 UV-I 0 W/m 0,2 C 0,5 C 1,6 km/h (1 Bft) 100,00 %
21.10.2016 06:26 0,4 C 98 % 1013,3 hPa 0,0 l/m 2,4 km/h (1 Bft) N-NO 28 0 min 0,000 mm 0,0 UV-I 0 W/m 0,1 C 0,4 C 4,8 km/h (1 Bft) 100,00 %
21.10.2016 06:28 0,4 C 98 % 1013,3 hPa 0,0 l/m 3,7 km/h (1 Bft) N-NO 28 0 min 0,000 mm 0,0 UV-I 0 W/m 0,1 C 0,4 C 4,8 km/h (1 Bft) 95,74 %
21.10.2016 06:30 0,4 C 98 % 1013,3 hPa 0,0 l/m 1,3 km/h (1 Bft) N-NO 28 0 min 0,000 mm 0,0 UV-I 0 W/m 0,1 C 0,4 C 4,8 km/h (1 Bft) 100,00 %
21.10.2016 06:32 0,4 C 98 % 1013,3 hPa 0,0 l/m 0,1 km/h (0 Bft) N-NO 28 0 min 0,000 mm 0,0 UV-I 0 W/m 0,1 C 0,4 C 1,6 km/h (1 Bft) 100,00 %
21.10.2016 06:34 0,4 C 98 % 1013,3 hPa 0,0 l/m 3,5 km/h (1 Bft) NO 40 0 min 0,000 mm 0,0 UV-I 0 W/m 0,1 C 0,4 C 4,8 km/h (1 Bft) 100,00 %
21.10.2016 06:36 0,4 C 98 % 1013,2 hPa 0,0 l/m 4,7 km/h (1 Bft) NO 34 0 min 0,000 mm 0,0 UV-I 0 W/m 0,1 C 0,4 C 6,4 km/h (2 Bft) 97,87 %
21.10.2016 06:38 0,3 C 98 % 1013,3 hPa 0,0 l/m 2,8 km/h (1 Bft) N-NO 24 0 min 0,000 mm 0,0 UV-I 0 W/m 0,0 C 0,3 C 4,8 km/h (1 Bft) 100,00 %
21.10.2016 06:40 0,3 C 98 % 1013,2 hPa 0,0 l/m 1,3 km/h (1 Bft) N-NO 24 0 min 0,000 mm 0,0 UV-I 0 W/m 0,0 C 0,3 C 3,2 km/h (1 Bft) 100,00 %
21.10.2016 06:42 0,2 C 98 % 1013,2 hPa 0,0 l/m 2,9 km/h (1 Bft) NO 45 0 min 0,000 mm 0,0 UV-I 0 W/m -0,1 C 0,2 C 4,8 km/h (1 Bft) 97,92 %
21.10.2016 06:44 0,2 C 98 % 1013,2 hPa 0,0 l/m 1,7 km/h (1 Bft) N-NO 33 0 min 0,000 mm 0,0 UV-I 0 W/m -0,1 C 0,2 C 4,8 km/h (1 Bft) 97,87 %
21.10.2016 06:46 0,2 C 98 % 1013,3 hPa 0,0 l/m 0,7 km/h (0 Bft) N-NO 32 0 min 0,000 mm 0,0 UV-I 0 W/m -0,1 C 0,2 C 3,2 km/h (1 Bft) 97,87 %
21.10.2016 06:48 0,2 C 98 % 1013,2 hPa 0,0 l/m 4,8 km/h (1 Bft) NO 52 0 min 0,000 mm 0,0 UV-I 0 W/m -0,1 C 0,2 C 8,0 km/h (2 Bft) 100,00 %
21.10.2016 06:50 0,3 C 98 % 1013,3 hPa 0,0 l/m 5,0 km/h (1 Bft) NO 52 0 min 0,000 mm 0,0 UV-I 0 W/m 0,0 C 0,3 C 8,0 km/h (2 Bft) 100,00 %
21.10.2016 06:52 0,2 C 98 % 1013,4 hPa 0,0 l/m 0,9 km/h (0 Bft) N-NO 30 0 min 0,000 mm 0,0 UV-I 0 W/m -0,1 C 0,2 C 3,2 km/h (1 Bft) 100,00 %
21.10.2016 06:54 0,3 C 98 % 1013,4 hPa 0,0 l/m 0,0 km/h (0 Bft) N-NO 30 0 min 0,000 mm 0,0 UV-I 0 W/m 0,0 C 0,3 C 0,0 km/h (0 Bft) 97,87 %
21.10.2016 06:56 0,3 C 98 % 1013,3 hPa 0,0 l/m 1,3 km/h (1 Bft) N-NO 30 0 min 0,000 mm 0,0 UV-I 0 W/m 0,0 C 0,3 C 4,8 km/h (1 Bft) 100,00 %
21.10.2016 06:58 0,3 C 98 % 1013,4 hPa 0,0 l/m 1,7 km/h (1 Bft) N-NO 26 0 min 0,000 mm 0,0 UV-I 0 W/m 0,0 C 0,3 C 4,8 km/h (1 Bft) 100,00 %
21.10.2016 07:00 0,3 C 98 % 1013,4 hPa 0,0 l/m 1,1 km/h (1 Bft) N-NO 26 0 min 0,000 mm 0,0 UV-I 0 W/m 0,0 C 0,3 C 3,2 km/h (1 Bft) 100,00 %
21.10.2016 07:02 0,3 C 98 % 1013,4 hPa 0,0 l/m 0,9 km/h (0 Bft) N-NO 26 0 min 0,000 mm 0,0 UV-I 0 W/m 0,0 C 0,3 C 3,2 km/h (1 Bft) 95,74 %
21.10.2016 07:04 0,4 C 98 % 1013,5 hPa 0,0 l/m 0,0 km/h (0 Bft) N-NO 26 0 min 0,000 mm 0,0 UV-I 0 W/m 0,1 C 0,4 C 1,6 km/h (1 Bft) 100,00 %
21.10.2016 07:06 0,4 C 98 % 1013,5 hPa 0,0 l/m 0,2 km/h (0 Bft) N-NO 25 0 min 0,000 mm 0,0 UV-I 0 W/m 0,1 C 0,4 C 1,6 km/h (1 Bft) 100,00 %
21.10.2016 07:08 0,4 C 98 % 1013,5 hPa 0,0 l/m 0,2 km/h (0 Bft) N-NO 26 0 min 0,000 mm 0,0 UV-I 0 W/m 0,1 C 0,4 C 1,6 km/h (1 Bft) 100,00 %
21.10.2016 07:10 0,4 C 98 % 1013,5 hPa 0,0 l/m 0,1 km/h (0 Bft) N-NO 26 0 min 0,000 mm 0,0 UV-I 0 W/m 0,1 C 0,4 C 1,6 km/h (1 Bft) 98,00 %
21.10.2016 07:12 0,4 C 98 % 1013,5 hPa 0,0 l/m 2,3 km/h (1 Bft) NO 39 0 min 0,000 mm 0,0 UV-I 0 W/m 0,1 C 0,4 C 4,8 km/h (1 Bft) 100,00 %
21.10.2016 07:14 0,4 C 98 % 1013,6 hPa 0,0 l/m 1,5 km/h (1 Bft) NO 39 0 min 0,000 mm 0,0 UV-I 0 W/m 0,1 C 0,4 C 3,2 km/h (1 Bft) 97,87 %
21.10.2016 07:16 0,4 C 98 % 1013,6 hPa 0,0 l/m 0,2 km/h (0 Bft) NO 39 0 min 0,000 mm 0,0 UV-I 0 W/m 0,1 C 0,4 C 1,6 km/h (1 Bft) 100,00 %
21.10.2016 07:18 0,4 C 98 % 1013,6 hPa 0,0 l/m 1,0 km/h (0 Bft) NO 39 0 min 0,000 mm 0,0 UV-I 0 W/m 0,1 C 0,4 C 4,8 km/h (1 Bft) 100,00 %
21.10.2016 07:20 0,4 C 98 % 1013,5 hPa 0,0 l/m 6,6 km/h (2 Bft) O-NO 72 0 min 0,000 mm 0,0 UV-I 76 W/m 0,1 C 0,2 C 9,7 km/h (2 Bft) 93,62 %
21.10.2016 07:22 0,4 C 98 % 1013,7 hPa 0,0 l/m 3,6 km/h (1 Bft) O-NO 57 0 min 0,000 mm 0,0 UV-I 76 W/m 0,1 C 0,4 C 6,4 km/h (2 Bft) 100,00 %
21.10.2016 07:24 0,4 C 98 % 1013,7 hPa 0,0 l/m 0,8 km/h (0 Bft) NO 55 0 min 0,000 mm 0,0 UV-I 76 W/m 0,1 C 0,4 C 1,6 km/h (1 Bft) 100,00 %
21.10.2016 07:26 0,4 C 98 % 1013,7 hPa 0,0 l/m 2,5 km/h (1 Bft) NO 51 0 min 0,000 mm 0,0 UV-I 76 W/m 0,1 C 0,4 C 4,8 km/h (1 Bft) 100,00 %
21.10.2016 07:28 0,5 C 98 % 1013,7 hPa 0,0 l/m 1,8 km/h (1 Bft) NO 51 0 min 0,000 mm 0,0 UV-I 76 W/m 0,2 C 0,5 C 4,8 km/h (1 Bft) 95,74 %
21.10.2016 07:30 0,5 C 98 % 1013,7 hPa 0,0 l/m 0,1 km/h (0 Bft) NO 51 0 min 0,000 mm 0,0 UV-I 76 W/m 0,2 C 0,5 C 1,6 km/h (1 Bft) 100,00 %
21.10.2016 07:32 0,5 C 98 % 1013,7 hPa 0,0 l/m 2,1 km/h (1 Bft) NO 51 0 min 0,000 mm 0,0 UV-I 76 W/m 0,2 C 0,5 C 4,8 km/h (1 Bft) 97,87 %
21.10.2016 07:34 0,5 C 98 % 1013,7 hPa 0,0 l/m 0,0 km/h (0 Bft) NO 51 0 min 0,000 mm 0,0 UV-I 76 W/m 0,2 C 0,5 C 0,0 km/h (0 Bft) 100,00 %
21.10.2016 07:36 0,6 C 98 % 1013,7 hPa 0,0 l/m 1,9 km/h (1 Bft) NO 51 0 min 0,000 mm 0,0 UV-I 76 W/m 0,3 C 0,6 C 4,8 km/h (1 Bft) 98,00 %
21.10.2016 07:38 0,6 C 98 % 1013,7 hPa 0,0 l/m 3,6 km/h (1 Bft) NO 51 0 min 0,000 mm 0,0 UV-I 76 W/m 0,3 C 0,6 C 4,8 km/h (1 Bft) 100,00 %
21.10.2016 07:40 0,6 C 98 % 1013,7 hPa 0,0 l/m 2,6 km/h (1 Bft) NO 51 0 min 0,000 mm 0,0 UV-I 76 W/m 0,3 C 0,6 C 4,8 km/h (1 Bft) 97,87 %
21.10.2016 07:42 0,6 C 98 % 1013,7 hPa 0,0 l/m 0,2 km/h (0 Bft) NO 51 0 min 0,000 mm 0,0 UV-I 76 W/m 0,3 C 0,6 C 1,6 km/h (1 Bft) 100,00 %
21.10.2016 07:44 0,6 C 98 % 1013,7 hPa 0,0 l/m 1,0 km/h (0 Bft) NO 51 2 min 0,000 mm 0,0 UV-I 76 W/m 0,3 C 0,6 C 3,2 km/h (1 Bft) 95,74 %
21.10.2016 07:46 0,7 C 98 % 1013,6 hPa 0,0 l/m 1,7 km/h (1 Bft) NO 51 2 min 0,000 mm 0,0 UV-I 76 W/m 0,4 C 0,7 C 3,2 km/h (1 Bft) 100,00 %
21.10.2016 07:48 0,7 C 98 % 1013,7 hPa 0,0 l/m 0,7 km/h (0 Bft) NO 51 2 min 0,000 mm 0,0 UV-I 76 W/m 0,4 C 0,7 C 3,2 km/h (1 Bft) 95,74 %
21.10.2016 07:50 0,7 C 98 % 1013,6 hPa 0,0 l/m 3,2 km/h (1 Bft) NO 51 2 min 0,000 mm 0,0 UV-I 76 W/m 0,4 C 0,7 C 4,8 km/h (1 Bft) 95,74 %
21.10.2016 07:52 0,7 C 98 % 1013,7 hPa 0,0 l/m 3,7 km/h (1 Bft) O-NO 67 2 min 0,000 mm 0,0 UV-I 76 W/m 0,4 C 0,7 C 4,8 km/h (1 Bft) 97,87 %
21.10.2016 07:54 0,8 C 98 % 1013,8 hPa 0,0 l/m 1,3 km/h (1 Bft) W-NW 289 2 min 0,000 mm 0,0 UV-I 76 W/m 0,5 C 0,8 C 4,8 km/h (1 Bft) 98,00 %
21.10.2016 07:56 0,8 C 98 % 1013,9 hPa 0,0 l/m 3,0 km/h (1 Bft) W 273 2 min 0,000 mm 0,0 UV-I 76 W/m 0,5 C 0,8 C 6,4 km/h (2 Bft) 95,83 %
21.10.2016 07:58 0,9 C 98 % 1013,7 hPa 0,0 l/m 4,7 km/h (1 Bft) O-SO 104 2 min 0,000 mm 0,0 UV-I 76 W/m 0,6 C 0,9 C 6,4 km/h (2 Bft) 98,00 %
21.10.2016 08:00 0,9 C 98 % 1013,9 hPa 0,0 l/m 1,2 km/h (1 Bft) O-SO 104 2 min 0,000 mm 0,0 UV-I 76 W/m 0,6 C 0,9 C 4,8 km/h (1 Bft) 97,87 %
21.10.2016 08:02 0,9 C 98 % 1013,9 hPa 0,0 l/m 0,3 km/h (0 Bft) N-NW 342 2 min 0,000 mm 0,0 UV-I 76 W/m 0,6 C 0,9 C 1,6 km/h (1 Bft) 97,87 %
21.10.2016 08:04 0,9 C 98 % 1013,9 hPa 0,0 l/m 0,3 km/h (0 Bft) N-NW 342 2 min 0,000 mm 0,0 UV-I 76 W/m 0,6 C 0,9 C 1,6 km/h (1 Bft) 93,62 %
21.10.2016 08:06 0,9 C 98 % 1013,7 hPa 0,0 l/m 2,2 km/h (1 Bft) O 80 2 min 0,000 mm 0,0 UV-I 76 W/m 0,6 C 0,9 C 4,8 km/h (1 Bft) 97,92 %
21.10.2016 08:08 1,0 C 98 % 1013,9 hPa 0,0 l/m 2,6 km/h (1 Bft) W-NW 298 2 min 0,000 mm 0,0 UV-I 76 W/m 0,7 C 1,0 C 4,8 km/h (1 Bft) 97,37 %
21.10.2016 08:10 1,1 C 98 % 1013,7 hPa 0,0 l/m 2,6 km/h (1 Bft) NW 306 2 min 0,000 mm 0,0 UV-I 76 W/m 0,8 C 1,1 C 6,4 km/h (2 Bft) 95,74 %
21.10.2016 08:12 1,0 C 98 % 1013,8 hPa 0,0 l/m 3,3 km/h (1 Bft) NO 51 2 min 0,000 mm 0,0 UV-I 76 W/m 0,7 C 1,0 C 4,8 km/h (1 Bft) 97,92 %
21.10.2016 08:14 1,1 C 98 % 1013,9 hPa 0,0 l/m 0,4 km/h (0 Bft) NO 37 2 min 0,000 mm 0,0 UV-I 76 W/m 0,8 C 1,1 C 1,6 km/h (1 Bft) 96,00 %
21.10.2016 08:16 1,1 C 98 % 1013,9 hPa 0,0 l/m 0,0 km/h (0 Bft) NO 36 2 min 0,000 mm 0,0 UV-I 76 W/m 0,8 C 1,1 C 1,6 km/h (1 Bft) 97,87 %
21.10.2016 08:18 1,1 C 98 % 1014,0 hPa 0,0 l/m 0,4 km/h (0 Bft) NO 36 2 min 0,000 mm 0,0 UV-I 76 W/m 0,8 C 1,1 C 1,6 km/h (1 Bft) 95,74 %
21.10.2016 08:20 1,2 C 98 % 1013,9 hPa 0,0 l/m 0,6 km/h (0 Bft) N-NW 348 2 min 0,000 mm 0,0 UV-I 76 W/m 0,9 C 1,2 C 3,2 km/h (1 Bft) 95,74 %
21.10.2016 08:22 1,2 C 98 % 1013,9 hPa 0,0 l/m 1,8 km/h (1 Bft) N-NW 348 2 min 0,000 mm 0,0 UV-I 76 W/m 0,9 C 1,2 C 3,2 km/h (1 Bft) 95,74 %
21.10.2016 08:24 1,2 C 98 % 1014,0 hPa 0,0 l/m 0,2 km/h (0 Bft) N-NW 348 2 min 0,000 mm 0,0 UV-I 76 W/m 0,9 C 1,2 C 1,6 km/h (1 Bft) 100,00 %
21.10.2016 08:26 1,2 C 98 % 1014,1 hPa 0,0 l/m 1,3 km/h (1 Bft) N-NO 14 2 min 0,000 mm 0,0 UV-I 76 W/m 0,9 C 1,2 C 3,2 km/h (1 Bft) 97,87 %
21.10.2016 08:28 1,2 C 98 % 1014,1 hPa 0,0 l/m 0,7 km/h (0 Bft) N-NO 14 2 min 0,000 mm 0,0 UV-I 76 W/m 0,9 C 1,2 C 3,2 km/h (1 Bft) 97,87 %
21.10.2016 08:30 1,3 C 98 % 1014,2 hPa 0,0 l/m 0,7 km/h (0 Bft) N-NO 14 0 min 0,000 mm 0,0 UV-I 76 W/m 1,0 C 1,3 C 3,2 km/h (1 Bft) 97,87 %
21.10.2016 08:32 1,3 C 98 % 1014,1 hPa 0,0 l/m 0,9 km/h (0 Bft) N-NO 14 0 min 0,000 mm 0,0 UV-I 76 W/m 1,0 C 1,3 C 3,2 km/h (1 Bft) 100,00 %
21.10.2016 08:34 1,3 C 98 % 1014,2 hPa 0,0 l/m 1,4 km/h (1 Bft) N-NO 14 0 min 0,000 mm 0,0 UV-I 76 W/m 1,0 C 1,3 C 3,2 km/h (1 Bft) 97,22 %
21.10.2016 08:36 1,3 C 98 % 1014,2 hPa 0,0 l/m 0,0 km/h (0 Bft) N-NO 14 0 min 0,000 mm 0,0 UV-I 76 W/m 1,0 C 1,3 C 0,0 km/h (0 Bft) 97,87 %
21.10.2016 08:38 1,3 C 98 % 1014,3 hPa 0,0 l/m 0,0 km/h (0 Bft) N-NO 14 0 min 0,000 mm 0,0 UV-I 76 W/m 1,0 C 1,3 C 0,0 km/h (0 Bft) 93,62 %
21.10.2016 08:40 1,3 C 98 % 1014,3 hPa 0,0 l/m 0,0 km/h (0 Bft) N-NO 14 0 min 0,000 mm 0,0 UV-I 76 W/m 1,0 C 1,3 C 0,0 km/h (0 Bft) 100,00 %
21.10.2016 08:42 1,4 C 98 % 1014,3 hPa 0,0 l/m 0,0 km/h (0 Bft) N-NO 14 0 min 0,000 mm 0,0 UV-I 76 W/m 1,1 C 1,4 C 0,0 km/h (0 Bft) 100,00 %
21.10.2016 08:44 1,4 C 98 % 1014,3 hPa 0,0 l/m 0,7 km/h (0 Bft) N 5 0 min 0,000 mm 0,0 UV-I 76 W/m 1,1 C 1,4 C 3,2 km/h (1 Bft) 100,00 %
21.10.2016 08:46 1,5 C 98 % 1014,4 hPa 0,0 l/m 1,7 km/h (1 Bft) N 349 0 min 0,000 mm 0,0 UV-I 76 W/m 1,2 C 1,5 C 3,2 km/h (1 Bft) 100,00 %
21.10.2016 08:48 1,6 C 98 % 1014,4 hPa 0,0 l/m 1,1 km/h (1 Bft) N 349 0 min 0,000 mm 0,0 UV-I 76 W/m 1,3 C 1,6 C 3,2 km/h (1 Bft) 100,00 %
21.10.2016 08:50 1,6 C 98 % 1014,4 hPa 0,0 l/m 1,9 km/h (1 Bft) NW 317 0 min 0,000 mm 0,0 UV-I 76 W/m 1,3 C 1,6 C 4,8 km/h (1 Bft) 97,87 %
21.10.2016 08:52 1,6 C 98 % 1014,5 hPa 0,0 l/m 0,0 km/h (0 Bft) NW 317 0 min 0,000 mm 0,0 UV-I 76 W/m 1,3 C 1,6 C 1,6 km/h (1 Bft) 97,87 %
21.10.2016 08:54 1,6 C 98 % 1014,5 hPa 0,0 l/m 0,0 km/h (0 Bft) NW 317 0 min 0,000 mm 0,0 UV-I 76 W/m 1,3 C 1,6 C 0,0 km/h (0 Bft) 100,00 %
21.10.2016 08:56 1,7 C 98 % 1014,5 hPa 0,2 l/m 0,0 km/h (0 Bft) NW 317 0 min 0,000 mm 0,0 UV-I 76 W/m 1,4 C 1,7 C 1,6 km/h (1 Bft) 100,00 %
21.10.2016 08:58 1,7 C 98 % 1014,5 hPa 0,0 l/m 0,4 km/h (0 Bft) NW 317 0 min 0,000 mm 0,0 UV-I 76 W/m 1,4 C 1,7 C 1,6 km/h (1 Bft) 100,00 %
21.10.2016 09:00 1,7 C 98 % 1014,4 hPa 0,0 l/m 0,0 km/h (0 Bft) NW 317 0 min 0,000 mm 0,0 UV-I 76 W/m 1,4 C 1,7 C 0,0 km/h (0 Bft) 97,87 %
21.10.2016 09:02 1,7 C 98 % 1014,4 hPa 0,0 l/m 0,0 km/h (0 Bft) NW 317 0 min 0,000 mm 0,0 UV-I 76 W/m 1,4 C 1,7 C 0,0 km/h (0 Bft) 100,00 %
21.10.2016 09:04 1,7 C 98 % 1014,4 hPa 0,0 l/m 0,0 km/h (0 Bft) NW 317 0 min 0,000 mm 0,0 UV-I 76 W/m 1,4 C 1,7 C 0,0 km/h (0 Bft) 100,00 %
21.10.2016 09:06 1,8 C 98 % 1014,4 hPa 0,0 l/m 0,0 km/h (0 Bft) NW 317 0 min 0,000 mm 0,0 UV-I 76 W/m 1,5 C 1,8 C 0,0 km/h (0 Bft) 100,00 %
21.10.2016 09:08 1,8 C 98 % 1014,4 hPa 0,0 l/m 0,0 km/h (0 Bft) NW 317 0 min 0,000 mm 0,0 UV-I 76 W/m 1,5 C 1,8 C 0,0 km/h (0 Bft) 100,00 %
21.10.2016 09:10 1,8 C 98 % 1014,4 hPa 0,0 l/m 0,1 km/h (0 Bft) NW 317 0 min 0,000 mm 0,0 UV-I 76 W/m 1,5 C 1,8 C 1,6 km/h (1 Bft) 97,87 %
21.10.2016 09:12 1,9 C 98 % 1014,4 hPa 0,0 l/m 1,0 km/h (0 Bft) NW 317 0 min 0,000 mm 0,0 UV-I 76 W/m 1,6 C 1,9 C 1,6 km/h (1 Bft) 100,00 %
21.10.2016 09:14 1,9 C 98 % 1014,3 hPa 0,0 l/m 0,0 km/h (0 Bft) NW 317 0 min 0,000 mm 0,0 UV-I 76 W/m 1,6 C 1,9 C 0,0 km/h (0 Bft) 97,87 %
21.10.2016 09:16 2,1 C 98 % 1014,3 hPa 0,0 l/m 0,3 km/h (0 Bft) NW 317 0 min 0,000 mm 0,0 UV-I 76 W/m 1,8 C 2,1 C 1,6 km/h (1 Bft) 100,00 %
21.10.2016 09:18 2,1 C 98 % 1014,3 hPa 0,0 l/m 0,1 km/h (0 Bft) NW 318 0 min 0,000 mm 0,0 UV-I 76 W/m 1,8 C 2,1 C 1,6 km/h (1 Bft) 97,87 %
21.10.2016 09:20 2,1 C 98 % 1014,3 hPa 0,0 l/m 0,0 km/h (0 Bft) NW 319 0 min 0,000 mm 0,0 UV-I 76 W/m 1,8 C 2,1 C 0,0 km/h (0 Bft) 97,87 %
21.10.2016 09:22 2,2 C 98 % 1014,3 hPa 0,0 l/m 0,2 km/h (0 Bft) NW 317 0 min 0,000 mm 0,0 UV-I 76 W/m 1,9 C 2,2 C 1,6 km/h (1 Bft) 100,00 %
21.10.2016 09:24 2,2 C 98 % 1014,3 hPa 0,0 l/m 0,8 km/h (0 Bft) NW 318 0 min 0,000 mm 0,0 UV-I 76 W/m 1,9 C 2,2 C 3,2 km/h (1 Bft) 97,87 %
21.10.2016 09:26 2,3 C 98 % 1014,3 hPa 0,0 l/m 2,1 km/h (1 Bft) O-NO 71 0 min 0,000 mm 0,0 UV-I 76 W/m 2,0 C 2,3 C 4,8 km/h (1 Bft) 100,00 %
21.10.2016 09:28 2,4 C 98 % 1014,3 hPa 0,0 l/m 2,7 km/h (1 Bft) O-NO 71 0 min 0,000 mm 0,0 UV-I 76 W/m 2,1 C 2,4 C 4,8 km/h (1 Bft) 100,00 %
21.10.2016 09:30 2,6 C 98 % 1014,3 hPa 0,0 l/m 1,2 km/h (1 Bft) O-NO 73 0 min 0,000 mm 0,0 UV-I 76 W/m 2,3 C 2,6 C 3,2 km/h (1 Bft) 95,83 %
21.10.2016 09:32 2,5 C 98 % 1014,2 hPa 0,0 l/m 1,8 km/h (1 Bft) SO 137 0 min 0,000 mm 0,0 UV-I 76 W/m 2,2 C 2,5 C 4,8 km/h (1 Bft) 100,00 %
21.10.2016 09:34 2,6 C 98 % 1014,2 hPa 0,0 l/m 4,4 km/h (1 Bft) SO 145 0 min 0,000 mm 0,0 UV-I 76 W/m 2,3 C 2,6 C 8,0 km/h (2 Bft) 100,00 %
21.10.2016 09:36 2,6 C 98 % 1014,2 hPa 0,0 l/m 5,2 km/h (1 Bft) O-SO 120 0 min 0,000 mm 0,0 UV-I 76 W/m 2,3 C 2,6 C 9,7 km/h (2 Bft) 98,00 %
21.10.2016 09:38 2,7 C 98 % 1014,2 hPa 0,0 l/m 1,7 km/h (1 Bft) SO 127 0 min 0,000 mm 0,0 UV-I 76 W/m 2,4 C 2,7 C 4,8 km/h (1 Bft) 100,00 %
21.10.2016 09:40 2,8 C 98 % 1014,3 hPa 0,0 l/m 0,2 km/h (0 Bft) SO 127 0 min 0,000 mm 0,0 UV-I 76 W/m 2,5 C 2,8 C 1,6 km/h (1 Bft) 97,87 %
21.10.2016 09:42 2,9 C 98 % 1014,2 hPa 0,0 l/m 0,6 km/h (0 Bft) SO 127 0 min 0,000 mm 0,0 UV-I 76 W/m 2,6 C 2,9 C 3,2 km/h (1 Bft) 100,00 %
21.10.2016 09:44 2,9 C 99 % 1014,3 hPa 0,0 l/m 0,1 km/h (0 Bft) SO 127 0 min 0,000 mm 0,0 UV-I 76 W/m 2,8 C 2,9 C 1,6 km/h (1 Bft) 100,00 %
21.10.2016 09:46 2,9 C 98 % 1014,2 hPa 0,0 l/m 1,3 km/h (1 Bft) SO 130 0 min 0,000 mm 0,0 UV-I 76 W/m 2,6 C 2,9 C 3,2 km/h (1 Bft) 97,87 %
21.10.2016 09:48 3,0 C 98 % 1014,2 hPa 0,0 l/m 2,6 km/h (1 Bft) SO 128 0 min 0,000 mm 0,0 UV-I 76 W/m 2,7 C 3,0 C 4,8 km/h (1 Bft) 95,74 %
21.10.2016 09:50 3,0 C 98 % 1014,2 hPa 0,0 l/m 2,0 km/h (1 Bft) SO 128 0 min 0,000 mm 0,0 UV-I 76 W/m 2,7 C 3,0 C 3,2 km/h (1 Bft) 97,87 %
21.10.2016 09:52 3,1 C 98 % 1014,1 hPa 0,0 l/m 0,8 km/h (0 Bft) SO 130 0 min 0,000 mm 0,0 UV-I 76 W/m 2,8 C 3,1 C 3,2 km/h (1 Bft) 97,87 %
21.10.2016 09:54 3,1 C 98 % 1014,1 hPa 0,0 l/m 1,2 km/h (1 Bft) SO 130 0 min 0,000 mm 0,0 UV-I 76 W/m 2,8 C 3,1 C 3,2 km/h (1 Bft) 98,00 %
21.10.2016 09:56 3,2 C 98 % 1014,0 hPa 0,0 l/m 0,5 km/h (0 Bft) SO 130 0 min 0,000 mm 0,0 UV-I 76 W/m 2,9 C 3,2 C 3,2 km/h (1 Bft) 95,74 %
21.10.2016 09:58 3,3 C 98 % 1014,0 hPa 0,0 l/m 2,6 km/h (1 Bft) SO 130 0 min 0,000 mm 0,0 UV-I 76 W/m 3,0 C 3,3 C 4,8 km/h (1 Bft) 100,00 %
21.10.2016 10:00 3,7 C 98 % 1014,0 hPa 0,0 l/m 1,6 km/h (1 Bft) SO 130 0 min 0,000 mm 0,0 UV-I 76 W/m 3,4 C 3,7 C 3,2 km/h (1 Bft) 95,74 %
21.10.2016 10:02 4,2 C 99 % 1014,0 hPa 0,0 l/m 0,4 km/h (0 Bft) SO 130 0 min 0,000 mm 0,0 UV-I 76 W/m 4,1 C 4,2 C 1,6 km/h (1 Bft) 97,87 %
21.10.2016 10:04 4,4 C 98 % 1014,0 hPa 0,0 l/m 1,7 km/h (1 Bft) SO 130 0 min 0,000 mm 0,0 UV-I 76 W/m 4,1 C 4,4 C 3,2 km/h (1 Bft) 95,74 %
21.10.2016 10:06 4,6 C 98 % 1014,0 hPa 0,0 l/m 1,4 km/h (1 Bft) SO 130 0 min 0,000 mm 0,0 UV-I 76 W/m 4,3 C 4,6 C 1,6 km/h (1 Bft) 95,74 %
21.10.2016 10:08 5,1 C 98 % 1014,0 hPa 0,0 l/m 0,7 km/h (0 Bft) SO 130 0 min 0,000 mm 0,0 UV-I 76 W/m 4,8 C 5,1 C 1,6 km/h (1 Bft) 95,74 %
21.10.2016 10:10 5,2 C 98 % 1014,0 hPa 0,0 l/m 0,9 km/h (0 Bft) SO 130 2 min 0,000 mm 0,5 UV-I 379 W/m 4,9 C 5,2 C 3,2 km/h (1 Bft) 97,92 %
21.10.2016 10:12 5,3 C 99 % 1014,0 hPa 0,0 l/m 0,2 km/h (0 Bft) SO 130 2 min 0,000 mm 0,7 UV-I 495 W/m 5,2 C 5,3 C 1,6 km/h (1 Bft) 97,92 %
21.10.2016 10:14 5,4 C 98 % 1014,0 hPa 0,0 l/m 1,2 km/h (1 Bft) SO 130 2 min 0,000 mm 0,7 UV-I 515 W/m 5,1 C 5,4 C 4,8 km/h (1 Bft) 97,92 %
21.10.2016 10:16 5,8 C 98 % 1014,0 hPa 0,0 l/m 2,8 km/h (1 Bft) SO 130 2 min 0,000 mm 0,7 UV-I 528 W/m 5,5 C 5,8 C 4,8 km/h (1 Bft) 95,74 %
21.10.2016 10:18 6,1 C 98 % 1014,0 hPa 0,0 l/m 2,4 km/h (1 Bft) SO 130 2 min 0,000 mm 0,7 UV-I 519 W/m 5,8 C 6,1 C 4,8 km/h (1 Bft) 100,00 %
21.10.2016 10:20 6,6 C 98 % 1014,0 hPa 0,0 l/m 1,4 km/h (1 Bft) SO 130 2 min 0,000 mm 0,6 UV-I 469 W/m 6,3 C 6,6 C 4,8 km/h (1 Bft) 97,87 %
21.10.2016 10:22 6,4 C 93 % 1014,0 hPa 0,0 l/m 2,5 km/h (1 Bft) SO 131 2 min 0,000 mm 0,6 UV-I 286 W/m 5,4 C 6,4 C 6,4 km/h (2 Bft) 97,87 %
21.10.2016 10:24 6,3 C 94 % 1014,0 hPa 0,0 l/m 1,7 km/h (1 Bft) SO 131 2 min 0,000 mm 0,7 UV-I 397 W/m 5,4 C 6,3 C 3,2 km/h (1 Bft) 100,00 %
21.10.2016 10:26 6,3 C 93 % 1014,1 hPa 0,0 l/m 0,5 km/h (0 Bft) SO 131 2 min 0,000 mm 0,6 UV-I 336 W/m 5,3 C 6,3 C 1,6 km/h (1 Bft) 100,00 %
21.10.2016 10:28 6,3 C 94 % 1014,1 hPa 0,0 l/m 0,1 km/h (0 Bft) SO 131 2 min 0,000 mm 0,6 UV-I 228 W/m 5,4 C 6,3 C 1,6 km/h (1 Bft) 100,00 %
21.10.2016 10:30 6,3 C 94 % 1014,1 hPa 0,0 l/m 1,4 km/h (1 Bft) SO 131 2 min 0,000 mm 0,6 UV-I 235 W/m 5,4 C 6,3 C 3,2 km/h (1 Bft) 100,00 %
21.10.2016 10:32 6,3 C 93 % 1014,1 hPa 0,0 l/m 1,2 km/h (1 Bft) SO 132 2 min 0,000 mm 0,6 UV-I 250 W/m 5,3 C 6,3 C 3,2 km/h (1 Bft) 100,00 %
21.10.2016 10:34 6,2 C 93 % 1014,1 hPa 0,0 l/m 0,4 km/h (0 Bft) SO 132 2 min 0,000 mm 0,7 UV-I 266 W/m 5,2 C 6,2 C 1,6 km/h (1 Bft) 100,00 %
21.10.2016 10:36 6,3 C 94 % 1014,0 hPa 0,0 l/m 0,1 km/h (0 Bft) SO 132 2 min 0,000 mm 0,7 UV-I 284 W/m 5,4 C 6,3 C 1,6 km/h (1 Bft) 100,00 %
21.10.2016 10:38 6,3 C 94 % 1014,0 hPa 0,0 l/m 0,7 km/h (0 Bft) SO 134 2 min 0,000 mm 0,8 UV-I 306 W/m 5,4 C 6,3 C 3,2 km/h (1 Bft) 100,00 %
21.10.2016 10:40 6,4 C 94 % 1014,0 hPa 0,0 l/m 0,1 km/h (0 Bft) SO 134 2 min 0,000 mm 0,9 UV-I 381 W/m 5,5 C 6,4 C 1,6 km/h (1 Bft) 100,00 %
21.10.2016 10:42 6,5 C 93 % 1014,0 hPa 0,0 l/m 0,7 km/h (0 Bft) SO 134 2 min 0,000 mm 0,8 UV-I 445 W/m 5,5 C 6,5 C 3,2 km/h (1 Bft) 100,00 %
21.10.2016 10:44 6,6 C 93 % 1014,0 hPa 0,0 l/m 0,8 km/h (0 Bft) SO 134 2 min 0,000 mm 0,8 UV-I 387 W/m 5,6 C 6,6 C 3,2 km/h (1 Bft) 100,00 %
21.10.2016 10:46 6,7 C 93 % 1014,0 hPa 0,0 l/m 0,6 km/h (0 Bft) SO 134 2 min 0,000 mm 0,9 UV-I 399 W/m 5,6 C 6,7 C 1,6 km/h (1 Bft) 100,00 %
21.10.2016 10:48 6,7 C 92 % 1014,0 hPa 0,0 l/m 0,1 km/h (0 Bft) SO 134 2 min 0,000 mm 0,8 UV-I 367 W/m 5,5 C 6,7 C 1,6 km/h (1 Bft) 97,87 %
21.10.2016 10:50 6,9 C 92 % 1014,0 hPa 0,0 l/m 0,1 km/h (0 Bft) SO 134 2 min 0,000 mm 0,9 UV-I 359 W/m 5,7 C 6,9 C 1,6 km/h (1 Bft) 100,00 %
21.10.2016 10:52 7,1 C 91 % 1013,9 hPa 0,0 l/m 0,2 km/h (0 Bft) SO 134 2 min 0,000 mm 0,9 UV-I 359 W/m 5,7 C 7,1 C 1,6 km/h (1 Bft) 97,87 %
21.10.2016 10:54 7,2 C 91 % 1013,9 hPa 0,0 l/m 0,1 km/h (0 Bft) SO 134 2 min 0,000 mm 0,8 UV-I 342 W/m 5,8 C 7,2 C 1,6 km/h (1 Bft) 100,00 %
21.10.2016 10:56 7,4 C 92 % 1014,0 hPa 0,0 l/m 0,3 km/h (0 Bft) SO 134 2 min 0,000 mm 0,8 UV-I 307 W/m 6,2 C 7,4 C 1,6 km/h (1 Bft) 100,00 %
21.10.2016 10:58 7,6 C 92 % 1014,0 hPa 0,0 l/m 0,1 km/h (0 Bft) SO 134 2 min 0,000 mm 0,8 UV-I 294 W/m 6,4 C 7,6 C 1,6 km/h (1 Bft) 100,00 %
21.10.2016 11:00 7,5 C 91 % 1014,0 hPa 0,0 l/m 0,3 km/h (0 Bft) SO 134 2 min 0,152 mm 0,7 UV-I 253 W/m 6,1 C 7,5 C 1,6 km/h (1 Bft) 97,87 %
21.10.2016 11:02 7,3 C 90 % 1014,0 hPa 0,0 l/m 1,5 km/h (1 Bft) SO 134 0 min 0,000 mm 0,7 UV-I 223 W/m 5,8 C 7,3 C 3,2 km/h (1 Bft) 100,00 %
21.10.2016 11:04 7,3 C 91 % 1014,0 hPa 0,0 l/m 0,3 km/h (0 Bft) SO 134 0 min 0,000 mm 0,7 UV-I 199 W/m 5,9 C 7,3 C 1,6 km/h (1 Bft) 100,00 %
21.10.2016 11:06 7,3 C 91 % 1014,0 hPa 0,0 l/m 0,2 km/h (0 Bft) SO 134 0 min 0,000 mm 0,7 UV-I 199 W/m 5,9 C 7,3 C 1,6 km/h (1 Bft) 100,00 %
21.10.2016 11:08 7,4 C 93 % 1014,0 hPa 0,0 l/m 0,1 km/h (0 Bft) SO 134 0 min 0,000 mm 0,8 UV-I 212 W/m 6,3 C 7,4 C 1,6 km/h (1 Bft) 97,37 %
21.10.2016 11:10 7,5 C 93 % 1014,0 hPa 0,0 l/m 1,2 km/h (1 Bft) SO 134 0 min 0,000 mm 0,9 UV-I 246 W/m 6,4 C 7,5 C 4,8 km/h (1 Bft) 100,00 %
21.10.2016 11:12 7,5 C 92 % 1014,0 hPa 0,0 l/m 0,4 km/h (0 Bft) SO 134 0 min 0,000 mm 0,8 UV-I 248 W/m 6,3 C 7,5 C 1,6 km/h (1 Bft) 100,00 %
21.10.2016 11:14 7,5 C 91 % 1014,0 hPa 0,0 l/m 0,7 km/h (0 Bft) SO 134 0 min 0,000 mm 0,8 UV-I 255 W/m 6,1 C 7,5 C 3,2 km/h (1 Bft) 100,00 %
21.10.2016 11:16 7,4 C 90 % 1014,1 hPa 0,0 l/m 0,2 km/h (0 Bft) SO 134 2 min 0,000 mm 0,8 UV-I 270 W/m 5,9 C 7,4 C 1,6 km/h (1 Bft) 97,87 %
21.10.2016 11:18 7,4 C 91 % 1014,1 hPa 0,0 l/m 0,1 km/h (0 Bft) SO 134 2 min 0,000 mm 0,9 UV-I 284 W/m 6,0 C 7,4 C 1,6 km/h (1 Bft) 100,00 %
21.10.2016 11:20 7,4 C 91 % 1014,1 hPa 0,0 l/m 0,9 km/h (0 Bft) SO 134 2 min 0,000 mm 0,9 UV-I 278 W/m 6,0 C 7,4 C 1,6 km/h (1 Bft) 100,00 %
21.10.2016 11:22 7,6 C 91 % 1014,1 hPa 0,0 l/m 0,5 km/h (0 Bft) SO 134 2 min 0,000 mm 0,9 UV-I 281 W/m 6,2 C 7,6 C 1,6 km/h (1 Bft) 100,00 %
21.10.2016 11:24 7,7 C 91 % 1014,1 hPa 0,0 l/m 0,9 km/h (0 Bft) SO 133 2 min 0,000 mm 0,9 UV-I 284 W/m 6,3 C 7,7 C 3,2 km/h (1 Bft) 97,87 %
21.10.2016 11:26 7,7 C 90 % 1014,1 hPa 0,0 l/m 1,0 km/h (0 Bft) SO 133 2 min 0,000 mm 0,9 UV-I 282 W/m 6,2 C 7,7 C 3,2 km/h (1 Bft) 93,62 %
21.10.2016 11:28 7,7 C 91 % 1014,1 hPa 0,0 l/m 0,6 km/h (0 Bft) SO 133 2 min 0,000 mm 0,9 UV-I 276 W/m 6,3 C 7,7 C 3,2 km/h (1 Bft) 95,74 %
21.10.2016 11:30 7,7 C 91 % 1014,1 hPa 0,0 l/m 0,2 km/h (0 Bft) SO 133 2 min 0,000 mm 0,9 UV-I 280 W/m 6,3 C 7,7 C 1,6 km/h (1 Bft) 95,74 %
21.10.2016 11:32 7,8 C 91 % 1014,1 hPa 0,0 l/m 0,7 km/h (0 Bft) SO 133 2 min 0,000 mm 0,9 UV-I 287 W/m 6,4 C 7,8 C 3,2 km/h (1 Bft) 97,92 %
21.10.2016 11:34 7,8 C 91 % 1014,1 hPa 0,0 l/m 0,3 km/h (0 Bft) SO 133 2 min 0,000 mm 0,9 UV-I 282 W/m 6,4 C 7,8 C 1,6 km/h (1 Bft) 97,87 %
21.10.2016 11:36 7,7 C 90 % 1014,1 hPa 0,0 l/m 0,4 km/h (0 Bft) SO 133 0 min 0,000 mm 0,9 UV-I 267 W/m 6,2 C 7,7 C 1,6 km/h (1 Bft) 97,87 %
21.10.2016 11:38 7,6 C 90 % 1014,1 hPa 0,0 l/m 0,2 km/h (0 Bft) SO 133 2 min 0,000 mm 0,9 UV-I 277 W/m 6,1 C 7,6 C 1,6 km/h (1 Bft) 97,87 %
21.10.2016 11:40 7,7 C 90 % 1014,1 hPa 0,0 l/m 0,2 km/h (0 Bft) SO 133 2 min 0,000 mm 0,9 UV-I 280 W/m 6,2 C 7,7 C 1,6 km/h (1 Bft) 97,96 %
21.10.2016 11:42 7,7 C 91 % 1014,2 hPa 0,0 l/m 1,0 km/h (0 Bft) SO 132 2 min 0,000 mm 0,9 UV-I 280 W/m 6,3 C 7,7 C 3,2 km/h (1 Bft) 93,62 %
21.10.2016 11:44 7,8 C 91 % 1014,1 hPa 0,0 l/m 0,1 km/h (0 Bft) SO 132 2 min 0,000 mm 0,9 UV-I 275 W/m 6,4 C 7,8 C 1,6 km/h (1 Bft) 97,87 %
21.10.2016 11:46 7,8 C 91 % 1014,1 hPa 0,0 l/m 0,8 km/h (0 Bft) SO 132 0 min 0,000 mm 0,9 UV-I 266 W/m 6,4 C 7,8 C 3,2 km/h (1 Bft) 96,00 %
21.10.2016 11:48 7,8 C 91 % 1014,2 hPa 0,0 l/m 1,4 km/h (1 Bft) SO 132 0 min 0,000 mm 0,9 UV-I 266 W/m 6,4 C 7,8 C 4,8 km/h (1 Bft) 97,87 %
21.10.2016 11:50 7,7 C 91 % 1014,1 hPa 0,0 l/m 1,0 km/h (0 Bft) SO 132 2 min 0,000 mm 0,9 UV-I 276 W/m 6,3 C 7,7 C 3,2 km/h (1 Bft) 97,87 %
21.10.2016 11:52 7,8 C 91 % 1014,1 hPa 0,0 l/m 0,8 km/h (0 Bft) SO 132 2 min 0,000 mm 0,9 UV-I 298 W/m 6,4 C 7,8 C 1,6 km/h (1 Bft) 97,87 %
21.10.2016 11:54 7,8 C 90 % 1014,1 hPa 0,0 l/m 1,4 km/h (1 Bft) SO 132 2 min 0,000 mm 1,0 UV-I 339 W/m 6,3 C 7,8 C 3,2 km/h (1 Bft) 95,83 %
21.10.2016 11:56 7,9 C 91 % 1014,2 hPa 0,0 l/m 0,1 km/h (0 Bft) SO 132 2 min 0,000 mm 1,0 UV-I 330 W/m 6,5 C 7,9 C 1,6 km/h (1 Bft) 95,74 %
21.10.2016 11:58 8,0 C 90 % 1014,1 hPa 0,0 l/m 0,9 km/h (0 Bft) SO 132 2 min 0,000 mm 0,9 UV-I 305 W/m 6,5 C 8,0 C 3,2 km/h (1 Bft) 100,00 %
21.10.2016 12:00 7,9 C 89 % 1014,1 hPa 0,0 l/m 1,4 km/h (1 Bft) SO 132 2 min 0,127 mm 0,9 UV-I 297 W/m 6,2 C 7,9 C 3,2 km/h (1 Bft) 100,00 %
21.10.2016 12:02 7,9 C 88 % 1014,2 hPa 0,0 l/m 1,8 km/h (1 Bft) SW 217 2 min 0,000 mm 0,9 UV-I 279 W/m 6,0 C 7,9 C 3,2 km/h (1 Bft) 95,74 %
21.10.2016 12:04 7,9 C 89 % 1014,1 hPa 0,0 l/m 0,8 km/h (0 Bft) SW 221 0 min 0,000 mm 0,9 UV-I 265 W/m 6,2 C 7,9 C 4,8 km/h (1 Bft) 97,87 %
21.10.2016 12:06 7,8 C 89 % 1014,1 hPa 0,0 l/m 1,9 km/h (1 Bft) SW 227 0 min 0,000 mm 0,9 UV-I 258 W/m 6,1 C 7,8 C 4,8 km/h (1 Bft) 100,00 %
21.10.2016 12:08 7,9 C 90 % 1014,1 hPa 0,0 l/m 1,8 km/h (1 Bft) W 275 0 min 0,000 mm 0,9 UV-I 259 W/m 6,4 C 7,9 C 3,2 km/h (1 Bft) 100,00 %
21.10.2016 12:10 8,0 C 90 % 1014,1 hPa 0,0 l/m 0,7 km/h (0 Bft) W 277 0 min 0,000 mm 0,9 UV-I 268 W/m 6,5 C 8,0 C 3,2 km/h (1 Bft) 100,00 %
21.10.2016 12:12 8,0 C 90 % 1014,2 hPa 0,0 l/m 0,6 km/h (0 Bft) W 278 2 min 0,000 mm 1,0 UV-I 284 W/m 6,5 C 8,0 C 3,2 km/h (1 Bft) 100,00 %
21.10.2016 12:14 8,1 C 90 % 1014,1 hPa 0,0 l/m 1,0 km/h (0 Bft) W-NW 296 2 min 0,000 mm 1,0 UV-I 284 W/m 6,6 C 8,1 C 3,2 km/h (1 Bft) 100,00 %
21.10.2016 12:16 8,2 C 91 % 1014,2 hPa 0,0 l/m 0,7 km/h (0 Bft) W-NW 296 2 min 0,000 mm 1,1 UV-I 301 W/m 6,8 C 8,2 C 3,2 km/h (1 Bft) 100,00 %
21.10.2016 12:18 8,3 C 90 % 1014,1 hPa 0,0 l/m 0,9 km/h (0 Bft) W-NW 296 2 min 0,000 mm 1,2 UV-I 357 W/m 6,8 C 8,3 C 3,2 km/h (1 Bft) 100,00 %
21.10.2016 12:20 8,4 C 87 % 1014,1 hPa 0,0 l/m 2,9 km/h (1 Bft) SW 217 2 min 0,000 mm 1,1 UV-I 330 W/m 6,4 C 8,4 C 8,0 km/h (2 Bft) 100,00 %
21.10.2016 12:22 8,5 C 87 % 1014,2 hPa 0,0 l/m 4,1 km/h (1 Bft) W-SW 238 2 min 0,000 mm 1,1 UV-I 329 W/m 6,5 C 8,5 C 6,4 km/h (2 Bft) 100,00 %
21.10.2016 12:24 8,6 C 86 % 1014,2 hPa 0,0 l/m 2,0 km/h (1 Bft) W-SW 238 2 min 0,000 mm 1,1 UV-I 353 W/m 6,4 C 8,6 C 3,2 km/h (1 Bft) 98,00 %
21.10.2016 12:26 8,6 C 86 % 1014,2 hPa 0,0 l/m 3,0 km/h (1 Bft) W-SW 238 2 min 0,000 mm 1,1 UV-I 350 W/m 6,4 C 8,6 C 4,8 km/h (1 Bft) 100,00 %
21.10.2016 12:28 8,6 C 86 % 1014,2 hPa 0,0 l/m 2,4 km/h (1 Bft) SW 236 2 min 0,000 mm 1,1 UV-I 396 W/m 6,4 C 8,6 C 4,8 km/h (1 Bft) 100,00 %
21.10.2016 12:30 8,6 C 86 % 1014,2 hPa 0,0 l/m 0,6 km/h (0 Bft) SW 236 2 min 0,000 mm 1,1 UV-I 342 W/m 6,4 C 8,6 C 1,6 km/h (1 Bft) 97,87 %
21.10.2016 12:32 8,7 C 86 % 1014,2 hPa 0,0 l/m 1,0 km/h (0 Bft) SW 236 2 min 0,000 mm 1,1 UV-I 332 W/m 6,5 C 8,7 C 3,2 km/h (1 Bft) 100,00 %
21.10.2016 12:34 8,7 C 86 % 1014,2 hPa 0,0 l/m 0,2 km/h (0 Bft) SW 236 2 min 0,000 mm 1,2 UV-I 342 W/m 6,5 C 8,7 C 1,6 km/h (1 Bft) 100,00 %
21.10.2016 12:36 8,7 C 87 % 1014,2 hPa 0,0 l/m 1,8 km/h (1 Bft) W-SW 242 2 min 0,000 mm 1,3 UV-I 385 W/m 6,7 C 8,7 C 4,8 km/h (1 Bft) 100,00 %
21.10.2016 12:38 8,6 C 87 % 1014,1 hPa 0,0 l/m 0,2 km/h (0 Bft) W-SW 242 2 min 0,000 mm 1,3 UV-I 341 W/m 6,6 C 8,6 C 1,6 km/h (1 Bft) 100,00 %
21.10.2016 12:40 8,9 C 89 % 1014,1 hPa 0,0 l/m 1,0 km/h (0 Bft) W-SW 245 2 min 0,000 mm 1,3 UV-I 343 W/m 7,2 C 8,9 C 3,2 km/h (1 Bft) 100,00 %
21.10.2016 12:42 9,1 C 86 % 1014,2 hPa 0,0 l/m 0,8 km/h (0 Bft) W-SW 246 2 min 0,000 mm 1,4 UV-I 445 W/m 6,9 C 9,1 C 3,2 km/h (1 Bft) 100,00 %
21.10.2016 12:44 9,1 C 81 % 1014,2 hPa 0,0 l/m 1,2 km/h (1 Bft) W-SW 247 2 min 0,000 mm 1,5 UV-I 611 W/m 6,0 C 9,1 C 3,2 km/h (1 Bft) 100,00 %
21.10.2016 12:46 9,2 C 82 % 1014,1 hPa 0,0 l/m 0,7 km/h (0 Bft) W-SW 247 2 min 0,000 mm 1,6 UV-I 626 W/m 6,3 C 9,2 C 3,2 km/h (1 Bft) 100,00 %
21.10.2016 12:49 9,2 C 82 % 1014,1 hPa 0,0 l/m 2,1 km/h (1 Bft) W-NW 286 3 min 0,000 mm 1,5 UV-I 556 W/m 6,3 C 9,2 C 6,4 km/h (2 Bft) 98,59 %
21.10.2016 12:50 9,2 C 81 % 1014,1 hPa 0,0 l/m 3,7 km/h (1 Bft) SW 225 1 min 0,000 mm 1,3 UV-I 559 W/m 6,1 C 9,2 C 8,0 km/h (2 Bft) 100,00 %
21.10.2016 12:52 9,2 C 80 % 1014,1 hPa 0,0 l/m 5,8 km/h (2 Bft) S-SW 213 2 min 0,000 mm 1,2 UV-I 361 W/m 5,9 C 9,2 C 8,0 km/h (2 Bft) 98,00 %
21.10.2016 12:54 9,2 C 81 % 1014,1 hPa 0,0 l/m 4,8 km/h (1 Bft) SW 227 0 min 0,000 mm 1,1 UV-I 263 W/m 6,1 C 9,2 C 8,0 km/h (2 Bft) 100,00 %
21.10.2016 12:56 9,1 C 80 % 1014,1 hPa 0,0 l/m 2,4 km/h (1 Bft) SW 225 0 min 0,000 mm 1,1 UV-I 270 W/m 5,8 C 9,1 C 6,4 km/h (2 Bft) 100,00 %
21.10.2016 12:58 9,1 C 82 % 1014,1 hPa 0,0 l/m 2,7 km/h (1 Bft) SW 225 2 min 0,000 mm 1,2 UV-I 313 W/m 6,2 C 9,1 C 4,8 km/h (1 Bft) 97,87 %
21.10.2016 13:00 9,2 C 80 % 1014,0 hPa 0,0 l/m 3,5 km/h (1 Bft) W 275 2 min 0,153 mm 1,2 UV-I 319 W/m 5,9 C 9,2 C 6,4 km/h (2 Bft) 100,00 %
21.10.2016 13:02 9,2 C 82 % 1014,1 hPa 0,0 l/m 4,7 km/h (1 Bft) W-SW 246 2 min 0,000 mm 1,1 UV-I 295 W/m 6,3 C 9,2 C 6,4 km/h (2 Bft) 100,00 %
21.10.2016 13:04 9,3 C 83 % 1014,0 hPa 0,0 l/m 4,1 km/h (1 Bft) SW 236 0 min 0,000 mm 1,1 UV-I 280 W/m 6,6 C 9,3 C 6,4 km/h (2 Bft) 100,00 %
21.10.2016 13:06 9,3 C 82 % 1014,1 hPa 0,0 l/m 5,7 km/h (1 Bft) W-SW 242 2 min 0,000 mm 1,1 UV-I 297 W/m 6,4 C 9,3 C 8,0 km/h (2 Bft) 100,00 %
21.10.2016 13:08 9,3 C 80 % 1014,0 hPa 0,0 l/m 4,6 km/h (1 Bft) W 269 0 min 0,000 mm 1,1 UV-I 282 W/m 6,0 C 9,3 C 11,3 km/h (2 Bft) 100,00 %
21.10.2016 13:10 9,2 C 80 % 1014,1 hPa 0,0 l/m 6,0 km/h (2 Bft) W-SW 246 0 min 0,000 mm 1,0 UV-I 265 W/m 5,9 C 9,2 C 11,3 km/h (2 Bft) 100,00 %
21.10.2016 13:12 9,2 C 82 % 1014,0 hPa 0,0 l/m 7,2 km/h (2 Bft) W-SW 242 0 min 0,000 mm 1,0 UV-I 264 W/m 6,3 C 8,6 C 12,9 km/h (3 Bft) 100,00 %
21.10.2016 13:14 9,2 C 80 % 1014,0 hPa 0,0 l/m 5,3 km/h (1 Bft) W 263 0 min 0,000 mm 1,0 UV-I 253 W/m 5,9 C 9,2 C 8,0 km/h (2 Bft) 97,87 %
21.10.2016 13:16 9,2 C 82 % 1014,0 hPa 0,0 l/m 4,0 km/h (1 Bft) SW 219 0 min 0,000 mm 0,8 UV-I 206 W/m 6,3 C 9,2 C 6,4 km/h (2 Bft) 100,00 %
21.10.2016 13:19 9,3 C 82 % 1014,0 hPa 0,0 l/m 4,3 km/h (1 Bft) SW 218 0 min 0,000 mm 0,8 UV-I 197 W/m 6,4 C 9,3 C 6,4 km/h (2 Bft) 98,59 %
21.10.2016 13:20 9,3 C 82 % 1014,0 hPa 0,0 l/m 0,5 km/h (0 Bft) SW 218 0 min 0,000 mm 0,8 UV-I 197 W/m 6,4 C 9,3 C 1,6 km/h (1 Bft) 100,00 %
21.10.2016 13:22 9,3 C 83 % 1014,1 hPa 0,0 l/m 4,7 km/h (1 Bft) W-SW 237 0 min 0,000 mm 0,7 UV-I 198 W/m 6,6 C 9,3 C 11,3 km/h (2 Bft) 93,62 %
21.10.2016 13:24 9,3 C 82 % 1014,0 hPa 0,0 l/m 8,7 km/h (2 Bft) W-SW 240 0 min 0,000 mm 0,8 UV-I 213 W/m 6,4 C 7,6 C 14,5 km/h (3 Bft) 97,87 %
21.10.2016 13:26 9,3 C 82 % 1014,1 hPa 0,0 l/m 7,4 km/h (2 Bft) W-SW 252 0 min 0,000 mm 0,8 UV-I 217 W/m 6,4 C 8,6 C 12,9 km/h (3 Bft) 97,22 %
21.10.2016 13:28 9,3 C 83 % 1014,1 hPa 0,0 l/m 5,8 km/h (2 Bft) SW 229 0 min 0,000 mm 0,8 UV-I 217 W/m 6,6 C 9,3 C 9,7 km/h (2 Bft) 96,72 %
21.10.2016 13:30 9,3 C 82 % 1014,1 hPa 0,0 l/m 4,6 km/h (1 Bft) W-SW 242 0 min 0,000 mm 0,7 UV-I 209 W/m 6,4 C 9,3 C 9,7 km/h (2 Bft) 97,92 %
21.10.2016 13:32 9,3 C 81 % 1014,1 hPa 0,0 l/m 6,2 km/h (2 Bft) SW 236 0 min 0,000 mm 0,7 UV-I 210 W/m 6,2 C 9,3 C 11,3 km/h (2 Bft) 97,87 %
21.10.2016 13:34 9,3 C 82 % 1014,0 hPa 0,0 l/m 2,9 km/h (1 Bft) W 264 0 min 0,000 mm 0,8 UV-I 227 W/m 6,4 C 9,3 C 6,4 km/h (2 Bft) 97,87 %
21.10.2016 13:36 9,3 C 83 % 1014,0 hPa 0,0 l/m 2,0 km/h (1 Bft) W 279 0 min 0,000 mm 0,9 UV-I 244 W/m 6,6 C 9,3 C 4,8 km/h (1 Bft) 97,87 %
21.10.2016 13:38 9,4 C 83 % 1014,0 hPa 0,0 l/m 2,8 km/h (1 Bft) SW 214 0 min 0,000 mm 0,9 UV-I 255 W/m 6,7 C 9,4 C 6,4 km/h (2 Bft) 97,87 %
21.10.2016 13:40 9,4 C 81 % 1014,0 hPa 0,0 l/m 0,8 km/h (0 Bft) SW 214 0 min 0,000 mm 0,9 UV-I 240 W/m 6,3 C 9,4 C 1,6 km/h (1 Bft) 97,87 %
21.10.2016 13:42 9,3 C 81 % 1014,0 hPa 0,0 l/m 2,2 km/h (1 Bft) W 269 0 min 0,000 mm 0,8 UV-I 219 W/m 6,2 C 9,3 C 4,8 km/h (1 Bft) 97,87 %
21.10.2016 13:44 9,4 C 82 % 1013,9 hPa 0,0 l/m 5,4 km/h (1 Bft) N-NW 327 0 min 0,000 mm 0,8 UV-I 213 W/m 6,5 C 9,4 C 9,7 km/h (2 Bft) 93,62 %
21.10.2016 13:46 9,3 C 82 % 1014,0 hPa 0,0 l/m 2,3 km/h (1 Bft) W-NW 292 0 min 0,000 mm 0,8 UV-I 211 W/m 6,4 C 9,3 C 6,4 km/h (2 Bft) 95,74 %
21.10.2016 13:48 9,4 C 82 % 1014,0 hPa 0,0 l/m 2,9 km/h (1 Bft) W 267 0 min 0,000 mm 0,7 UV-I 197 W/m 6,5 C 9,4 C 4,8 km/h (1 Bft) 97,87 %
21.10.2016 13:50 9,3 C 82 % 1014,0 hPa 0,0 l/m 2,3 km/h (1 Bft) W-NW 295 0 min 0,000 mm 0,7 UV-I 220 W/m 6,4 C 9,3 C 4,8 km/h (1 Bft) 97,87 %
21.10.2016 13:52 9,3 C 81 % 1014,0 hPa 0,0 l/m 2,3 km/h (1 Bft) W 275 0 min 0,000 mm 0,8 UV-I 249 W/m 6,2 C 9,3 C 6,4 km/h (2 Bft) 97,87 %
21.10.2016 13:54 9,4 C 82 % 1014,0 hPa 0,0 l/m 4,1 km/h (1 Bft) W 260 0 min 0,000 mm 0,8 UV-I 259 W/m 6,5 C 9,4 C 6,4 km/h (2 Bft) 100,00 %
21.10.2016 13:56 9,5 C 81 % 1014,0 hPa 0,0 l/m 6,8 km/h (2 Bft) W-SW 256 0 min 0,000 mm 0,8 UV-I 246 W/m 6,4 C 9,2 C 12,9 km/h (3 Bft) 100,00 %
21.10.2016 13:59 9,5 C 78 % 1013,9 hPa 0,0 l/m 10,3 km/h (2 Bft) W-NW 286 0 min 0,000 mm 0,8 UV-I 226 W/m 5,9 C 6,9 C 19,3 km/h (3 Bft) 98,65 %
21.10.2016 14:00 9,5 C 79 % 1013,9 hPa 0,0 l/m 9,8 km/h (2 Bft) W 271 0 min 0,127 mm 0,7 UV-I 199 W/m 6,0 C 7,2 C 16,1 km/h (3 Bft) 100,00 %
21.10.2016 14:02 9,5 C 80 % 1013,9 hPa 0,0 l/m 5,7 km/h (1 Bft) W-SW 257 0 min 0,000 mm 0,6 UV-I 190 W/m 6,2 C 9,5 C 14,5 km/h (3 Bft) 100,00 %
21.10.2016 14:04 9,5 C 79 % 1013,9 hPa 0,0 l/m 5,2 km/h (1 Bft) W-SW 242 0 min 0,000 mm 0,5 UV-I 177 W/m 6,0 C 9,5 C 9,7 km/h (2 Bft) 97,87 %
21.10.2016 14:06 9,5 C 79 % 1013,9 hPa 0,0 l/m 5,8 km/h (2 Bft) W-SW 253 0 min 0,000 mm 0,5 UV-I 171 W/m 6,0 C 9,5 C 11,3 km/h (2 Bft) 97,87 %
21.10.2016 14:08 9,4 C 79 % 1013,9 hPa 0,0 l/m 6,7 km/h (2 Bft) W-NW 286 0 min 0,000 mm 0,5 UV-I 165 W/m 5,9 C 9,2 C 14,5 km/h (3 Bft) 100,00 %
21.10.2016 14:10 9,4 C 79 % 1013,9 hPa 0,0 l/m 5,7 km/h (1 Bft) W-SW 244 0 min 0,000 mm 0,5 UV-I 170 W/m 5,9 C 9,4 C 14,5 km/h (3 Bft) 95,74 %
21.10.2016 14:12 9,4 C 80 % 1013,9 hPa 0,0 l/m 3,9 km/h (1 Bft) W-SW 257 0 min 0,000 mm 0,6 UV-I 210 W/m 6,1 C 9,4 C 12,9 km/h (3 Bft) 100,00 %
21.10.2016 14:14 9,5 C 81 % 1013,9 hPa 0,0 l/m 5,9 km/h (2 Bft) SW 229 2 min 0,000 mm 0,7 UV-I 268 W/m 6,4 C 9,5 C 11,3 km/h (2 Bft) 98,00 %
21.10.2016 14:16 9,6 C 80 % 1013,9 hPa 0,0 l/m 6,0 km/h (2 Bft) W-SW 246 0 min 0,000 mm 0,7 UV-I 235 W/m 6,3 C 9,6 C 11,3 km/h (2 Bft) 97,14 %
21.10.2016 14:20 9,6 C 79 % 1013,9 hPa 0,0 l/m 8,0 km/h (2 Bft) W-SW 247 0 min 0,000 mm 0,6 UV-I 197 W/m 6,1 C 8,4 C 14,5 km/h (3 Bft) 98,25 %
21.10.2016 14:24 9,6 C 80 % 1013,9 hPa 0,0 l/m 3,5 km/h (1 Bft) W-NW 287 0 min 0,000 mm 0,5 UV-I 145 W/m 6,3 C 9,6 C 4,8 km/h (1 Bft) 98,78 %
21.10.2016 14:26 9,5 C 79 % 1013,9 hPa 0,0 l/m 6,3 km/h (2 Bft) W-SW 248 0 min 0,000 mm 0,5 UV-I 137 W/m 6,0 C 9,5 C 12,9 km/h (3 Bft) 98,00 %
21.10.2016 14:28 9,4 C 79 % 1013,9 hPa 0,0 l/m 7,3 km/h (2 Bft) W-SW 239 0 min 0,000 mm 0,5 UV-I 135 W/m 5,9 C 8,7 C 16,1 km/h (3 Bft) 100,00 %
21.10.2016 14:30 9,4 C 79 % 1013,9 hPa 0,0 l/m 6,2 km/h (2 Bft) SW 222 0 min 0,000 mm 0,1 UV-I 120 W/m 5,9 C 9,4 C 11,3 km/h (2 Bft) 100,00 %
21.10.2016 14:32 9,4 C 80 % 1013,9 hPa 0,0 l/m 5,5 km/h (1 Bft) W-SW 257 0 min 0,000 mm 0,0 UV-I 109 W/m 6,1 C 9,4 C 16,1 km/h (3 Bft) 97,78 %
21.10.2016 14:34 9,4 C 79 % 1013,9 hPa 0,0 l/m 6,5 km/h (2 Bft) W 260 0 min 0,000 mm 0,0 UV-I 106 W/m 5,9 C 9,4 C 12,9 km/h (3 Bft) 100,00 %
21.10.2016 14:36 9,3 C 80 % 1014,0 hPa 0,0 l/m 5,0 km/h (1 Bft) W 279 0 min 0,000 mm 0,0 UV-I 114 W/m 6,0 C 9,3 C 6,4 km/h (2 Bft) 100,00 %
21.10.2016 14:38 9,3 C 80 % 1014,0 hPa 0,0 l/m 3,2 km/h (1 Bft) W-SW 257 0 min 0,000 mm 0,0 UV-I 122 W/m 6,0 C 9,3 C 6,4 km/h (2 Bft) 100,00 %
21.10.2016 14:40 9,3 C 80 % 1014,0 hPa 0,0 l/m 5,6 km/h (1 Bft) W-SW 252 0 min 0,000 mm 0,0 UV-I 128 W/m 6,0 C 9,3 C 9,7 km/h (2 Bft) 98,00 %
21.10.2016 14:42 9,3 C 81 % 1014,0 hPa 0,0 l/m 3,8 km/h (1 Bft) W-NW 293 0 min 0,000 mm 0,0 UV-I 133 W/m 6,2 C 9,3 C 6,4 km/h (2 Bft) 100,00 %
21.10.2016 14:44 9,4 C 81 % 1014,0 hPa 0,0 l/m 3,8 km/h (1 Bft) W 271 0 min 0,000 mm 0,5 UV-I 156 W/m 6,3 C 9,4 C 6,4 km/h (2 Bft) 98,11 %
21.10.2016 14:46 9,4 C 81 % 1014,0 hPa 0,0 l/m 4,3 km/h (1 Bft) W 269 0 min 0,000 mm 0,5 UV-I 163 W/m 6,3 C 9,4 C 6,4 km/h (2 Bft) 100,00 %
21.10.2016 14:48 9,5 C 81 % 1014,0 hPa 0,0 l/m 3,6 km/h (1 Bft) W-SW 239 0 min 0,000 mm 0,5 UV-I 155 W/m 6,4 C 9,5 C 6,4 km/h (2 Bft) 100,00 %
21.10.2016 14:50 9,5 C 82 % 1014,0 hPa 0,0 l/m 4,7 km/h (1 Bft) W-SW 255 0 min 0,000 mm 0,5 UV-I 160 W/m 6,6 C 9,5 C 11,3 km/h (2 Bft) 98,00 %
21.10.2016 14:52 9,4 C 79 % 1013,9 hPa 0,0 l/m 7,6 km/h (2 Bft) SW 234 0 min 0,000 mm 0,5 UV-I 165 W/m 5,9 C 8,5 C 14,5 km/h (3 Bft) 100,00 %
21.10.2016 14:54 9,5 C 80 % 1013,9 hPa 0,0 l/m 6,3 km/h (2 Bft) W 261 0 min 0,000 mm 0,5 UV-I 170 W/m 6,2 C 9,5 C 11,3 km/h (2 Bft) 100,00 %
21.10.2016 14:56 9,5 C 80 % 1013,9 hPa 0,0 l/m 6,7 km/h (2 Bft) W 277 0 min 0,000 mm 0,5 UV-I 164 W/m 6,2 C 9,3 C 11,3 km/h (2 Bft) 100,00 %
21.10.2016 14:59 9,5 C 80 % 1014,0 hPa 0,0 l/m 7,8 km/h (2 Bft) W-SW 252 0 min 0,000 mm 0,5 UV-I 156 W/m 6,2 C 8,5 C 14,5 km/h (3 Bft) 100,00 %
21.10.2016 15:00 9,5 C 79 % 1014,0 hPa 0,0 l/m 10,0 km/h (2 Bft) W-SW 248 0 min 0,000 mm 0,5 UV-I 165 W/m 6,0 C 7,0 C 12,9 km/h (3 Bft) 100,00 %
21.10.2016 15:02 9,5 C 79 % 1013,9 hPa 0,0 l/m 6,3 km/h (2 Bft) W-NW 290 0 min 0,076 mm 0,5 UV-I 183 W/m 6,0 C 9,5 C 9,7 km/h (2 Bft) 97,37 %
21.10.2016 15:04 9,6 C 79 % 1014,0 hPa 0,0 l/m 6,8 km/h (2 Bft) W-NW 283 0 min 0,000 mm 0,6 UV-I 187 W/m 6,1 C 9,3 C 14,5 km/h (3 Bft) 100,00 %
21.10.2016 15:06 9,6 C 80 % 1014,0 hPa 0,0 l/m 3,3 km/h (1 Bft) W-NW 301 0 min 0,000 mm 0,5 UV-I 169 W/m 6,3 C 9,6 C 6,4 km/h (2 Bft) 98,11 %
21.10.2016 15:08 9,6 C 80 % 1013,9 hPa 0,0 l/m 3,8 km/h (1 Bft) W-SW 258 0 min 0,000 mm 0,4 UV-I 149 W/m 6,3 C 9,6 C 9,7 km/h (2 Bft) 100,00 %
21.10.2016 15:10 9,6 C 81 % 1014,0 hPa 0,0 l/m 7,8 km/h (2 Bft) W-NW 283 0 min 0,000 mm 0,0 UV-I 136 W/m 6,5 C 8,6 C 14,5 km/h (3 Bft) 100,00 %
21.10.2016 15:12 9,6 C 80 % 1014,0 hPa 0,0 l/m 5,7 km/h (1 Bft) W 264 0 min 0,000 mm 0,0 UV-I 123 W/m 6,3 C 9,6 C 11,3 km/h (2 Bft) 100,00 %
21.10.2016 15:14 9,6 C 79 % 1014,0 hPa 0,0 l/m 7,7 km/h (2 Bft) W 263 0 min 0,000 mm 0,0 UV-I 112 W/m 6,1 C 8,6 C 12,9 km/h (3 Bft) 100,00 %
21.10.2016 15:16 9,5 C 79 % 1014,0 hPa 0,0 l/m 7,2 km/h (2 Bft) W-SW 242 0 min 0,000 mm 0,0 UV-I 112 W/m 6,0 C 8,9 C 12,9 km/h (3 Bft) 100,00 %
21.10.2016 15:18 9,4 C 80 % 1013,9 hPa 0,0 l/m 6,2 km/h (2 Bft) W 269 0 min 0,000 mm 0,0 UV-I 127 W/m 6,1 C 9,4 C 11,3 km/h (2 Bft) 100,00 %
21.10.2016 15:20 9,4 C 80 % 1014,0 hPa 0,0 l/m 6,9 km/h (2 Bft) W-NW 292 0 min 0,000 mm 0,0 UV-I 145 W/m 6,1 C 9,0 C 12,9 km/h (3 Bft) 98,00 %
21.10.2016 15:22 9,4 C 81 % 1013,9 hPa 0,0 l/m 6,5 km/h (2 Bft) W-SW 237 0 min 0,000 mm 0,0 UV-I 179 W/m 6,3 C 9,4 C 14,5 km/h (3 Bft) 97,37 %
21.10.2016 15:24 9,5 C 81 % 1014,0 hPa 0,0 l/m 5,0 km/h (1 Bft) W-SW 252 2 min 0,000 mm 0,2 UV-I 226 W/m 6,4 C 9,5 C 9,7 km/h (2 Bft) 97,87 %
21.10.2016 15:26 9,6 C 81 % 1014,0 hPa 0,0 l/m 3,9 km/h (1 Bft) W-NW 296 2 min 0,000 mm 0,5 UV-I 289 W/m 6,5 C 9,6 C 8,0 km/h (2 Bft) 96,00 %
21.10.2016 15:28 9,7 C 81 % 1014,0 hPa 0,0 l/m 4,2 km/h (1 Bft) W 274 2 min 0,000 mm 0,5 UV-I 252 W/m 6,6 C 9,7 C 9,7 km/h (2 Bft) 95,74 %
21.10.2016 15:30 9,7 C 81 % 1014,0 hPa 0,0 l/m 1,5 km/h (1 Bft) W 274 0 min 0,000 mm 0,3 UV-I 181 W/m 6,6 C 9,7 C 4,8 km/h (1 Bft) 98,00 %
21.10.2016 15:32 9,7 C 81 % 1014,0 hPa 0,0 l/m 3,4 km/h (1 Bft) SW 230 0 min 0,000 mm 0,0 UV-I 113 W/m 6,6 C 9,7 C 6,4 km/h (2 Bft) 97,73 %
21.10.2016 15:34 9,7 C 81 % 1014,0 hPa 0,0 l/m 6,0 km/h (2 Bft) W 260 0 min 0,000 mm 0,0 UV-I 90 W/m 6,6 C 9,7 C 11,3 km/h (2 Bft) 97,87 %
21.10.2016 15:36 9,6 C 81 % 1013,9 hPa 0,0 l/m 3,7 km/h (1 Bft) W-SW 246 0 min 0,000 mm 0,0 UV-I 100 W/m 6,5 C 9,6 C 8,0 km/h (2 Bft) 98,00 %
21.10.2016 15:38 9,4 C 82 % 1014,0 hPa 0,0 l/m 4,2 km/h (1 Bft) W-SW 257 0 min 0,000 mm 0,0 UV-I 106 W/m 6,5 C 9,4 C 12,9 km/h (3 Bft) 97,56 %
21.10.2016 15:40 9,3 C 81 % 1014,0 hPa 0,0 l/m 6,6 km/h (2 Bft) W-NW 286 0 min 0,000 mm 0,0 UV-I 93 W/m 6,2 C 9,2 C 14,5 km/h (3 Bft) 97,56 %
21.10.2016 15:42 9,3 C 82 % 1013,9 hPa 0,0 l/m 6,3 km/h (2 Bft) W-SW 254 0 min 0,000 mm 0,0 UV-I 86 W/m 6,4 C 9,3 C 12,9 km/h (3 Bft) 96,23 %
21.10.2016 15:44 9,2 C 81 % 1014,0 hPa 0,0 l/m 8,4 km/h (2 Bft) SW 236 0 min 0,000 mm 0,0 UV-I 93 W/m 6,1 C 7,7 C 12,9 km/h (3 Bft) 96,23 %
21.10.2016 15:46 9,2 C 82 % 1013,9 hPa 0,0 l/m 3,6 km/h (1 Bft) W 262 0 min 0,000 mm 0,0 UV-I 101 W/m 6,3 C 9,2 C 6,4 km/h (2 Bft) 97,87 %
21.10.2016 15:48 9,2 C 82 % 1014,0 hPa 0,0 l/m 4,9 km/h (1 Bft) W 261 0 min 0,000 mm 0,0 UV-I 100 W/m 6,3 C 9,2 C 8,0 km/h (2 Bft) 97,44 %
21.10.2016 15:50 9,1 C 83 % 1013,9 hPa 0,0 l/m 2,8 km/h (1 Bft) W-NW 297 0 min 0,000 mm 0,0 UV-I 114 W/m 6,4 C 9,1 C 6,4 km/h (2 Bft) 96,00 %
21.10.2016 15:52 9,1 C 82 % 1013,9 hPa 0,0 l/m 1,6 km/h (1 Bft) NW 305 0 min 0,000 mm 0,0 UV-I 113 W/m 6,2 C 9,1 C 4,8 km/h (1 Bft) 97,87 %
21.10.2016 15:54 9,1 C 82 % 1014,0 hPa 0,0 l/m 7,6 km/h (2 Bft) W-SW 257 0 min 0,000 mm 0,0 UV-I 105 W/m 6,2 C 8,2 C 12,9 km/h (3 Bft) 93,62 %
21.10.2016 15:56 9,1 C 82 % 1014,0 hPa 0,0 l/m 5,2 km/h (1 Bft) W-SW 251 0 min 0,000 mm 0,0 UV-I 101 W/m 6,2 C 9,1 C 11,3 km/h (2 Bft) 100,00 %
21.10.2016 15:58 9,1 C 82 % 1014,0 hPa 0,0 l/m 7,3 km/h (2 Bft) W-SW 258 0 min 0,000 mm 0,0 UV-I 116 W/m 6,2 C 8,4 C 12,9 km/h (3 Bft) 98,11 %
21.10.2016 16:00 9,1 C 82 % 1013,9 hPa 0,0 l/m 6,2 km/h (2 Bft) W-NW 282 0 min 0,076 mm 0,0 UV-I 122 W/m 6,2 C 9,1 C 14,5 km/h (3 Bft) 97,56 %
21.10.2016 16:02 9,2 C 83 % 1014,0 hPa 0,0 l/m 4,7 km/h (1 Bft) W-SW 241 0 min 0,000 mm 0,0 UV-I 128 W/m 6,5 C 9,2 C 6,4 km/h (2 Bft) 97,87 %
21.10.2016 16:04 9,2 C 81 % 1014,0 hPa 0,0 l/m 7,4 km/h (2 Bft) W-SW 238 0 min 0,000 mm 0,0 UV-I 139 W/m 6,1 C 8,4 C 12,9 km/h (3 Bft) 100,00 %
21.10.2016 16:06 9,2 C 81 % 1014,0 hPa 0,0 l/m 6,6 km/h (2 Bft) SW 236 0 min 0,000 mm 0,0 UV-I 137 W/m 6,1 C 9,1 C 14,5 km/h (3 Bft) 97,87 %
21.10.2016 16:08 9,2 C 81 % 1014,0 hPa 0,0 l/m 7,8 km/h (2 Bft) W 270 0 min 0,000 mm 0,0 UV-I 131 W/m 6,1 C 8,2 C 16,1 km/h (3 Bft) 97,87 %
21.10.2016 16:10 9,2 C 80 % 1014,0 hPa 0,0 l/m 7,3 km/h (2 Bft) W-SW 258 0 min 0,000 mm 0,0 UV-I 119 W/m 5,9 C 8,5 C 12,9 km/h (3 Bft) 100,00 %
21.10.2016 16:12 9,2 C 80 % 1014,0 hPa 0,0 l/m 6,7 km/h (2 Bft) W-SW 246 0 min 0,000 mm 0,0 UV-I 112 W/m 5,9 C 9,0 C 14,5 km/h (3 Bft) 97,37 %
21.10.2016 16:14 9,2 C 81 % 1014,0 hPa 0,0 l/m 4,2 km/h (1 Bft) W 265 0 min 0,000 mm 0,0 UV-I 104 W/m 6,1 C 9,2 C 6,4 km/h (2 Bft) 96,23 %
21.10.2016 16:16 9,2 C 81 % 1014,0 hPa 0,0 l/m 3,4 km/h (1 Bft) W 266 0 min 0,000 mm 0,0 UV-I 108 W/m 6,1 C 9,2 C 6,4 km/h (2 Bft) 100,00 %
21.10.2016 16:18 9,1 C 81 % 1014,1 hPa 0,0 l/m 3,9 km/h (1 Bft) W-SW 245 0 min 0,000 mm 0,0 UV-I 104 W/m 6,0 C 9,1 C 6,4 km/h (2 Bft) 100,00 %
21.10.2016 16:20 9,2 C 81 % 1014,1 hPa 0,0 l/m 5,6 km/h (1 Bft) W 260 0 min 0,000 mm 0,0 UV-I 98 W/m 6,1 C 9,2 C 11,3 km/h (2 Bft) 100,00 %
21.10.2016 16:22 9,2 C 81 % 1014,1 hPa 0,0 l/m 5,2 km/h (1 Bft) W-SW 255 0 min 0,000 mm 0,0 UV-I 99 W/m 6,1 C 9,2 C 11,3 km/h (2 Bft) 100,00 %
21.10.2016 16:24 9,2 C 81 % 1014,1 hPa 0,0 l/m 2,9 km/h (1 Bft) SW 230 0 min 0,000 mm 0,0 UV-I 104 W/m 6,1 C 9,2 C 6,4 km/h (2 Bft) 100,00 %
21.10.2016 16:26 9,2 C 82 % 1014,1 hPa 0,0 l/m 3,3 km/h (1 Bft) W-SW 246 0 min 0,000 mm 0,0 UV-I 104 W/m 6,3 C 9,2 C 6,4 km/h (2 Bft) 100,00 %
21.10.2016 16:28 9,2 C 82 % 1014,1 hPa 0,0 l/m 3,9 km/h (1 Bft) W 281 0 min 0,000 mm 0,0 UV-I 95 W/m 6,3 C 9,2 C 9,7 km/h (2 Bft) 96,00 %
21.10.2016 16:30 9,1 C 81 % 1014,1 hPa 0,0 l/m 4,2 km/h (1 Bft) W-SW 258 0 min 0,000 mm 0,0 UV-I 91 W/m 6,0 C 9,1 C 9,7 km/h (2 Bft) 96,15 %
21.10.2016 16:32 9,1 C 82 % 1014,2 hPa 0,0 l/m 4,1 km/h (1 Bft) SW 219 0 min 0,000 mm 0,0 UV-I 84 W/m 6,2 C 9,1 C 6,4 km/h (2 Bft) 100,00 %
21.10.2016 16:34 9,1 C 82 % 1014,2 hPa 0,0 l/m 4,1 km/h (1 Bft) W-SW 256 0 min 0,000 mm 0,0 UV-I 76 W/m 6,2 C 9,1 C 11,3 km/h (2 Bft) 100,00 %
21.10.2016 16:36 9,0 C 82 % 1014,1 hPa 0,0 l/m 1,3 km/h (1 Bft) W-SW 256 0 min 0,000 mm 0,0 UV-I 68 W/m 6,1 C 9,0 C 4,8 km/h (1 Bft) 97,87 %
21.10.2016 16:38 9,0 C 82 % 1014,2 hPa 0,0 l/m 3,5 km/h (1 Bft) NW 313 0 min 0,000 mm 0,0 UV-I 56 W/m 6,1 C 9,0 C 8,0 km/h (2 Bft) 100,00 %
21.10.2016 16:40 8,9 C 82 % 1014,2 hPa 0,0 l/m 2,3 km/h (1 Bft) W 261 0 min 0,000 mm 0,0 UV-I 51 W/m 6,0 C 8,9 C 4,8 km/h (1 Bft) 100,00 %
21.10.2016 16:42 8,9 C 82 % 1014,2 hPa 0,0 l/m 2,4 km/h (1 Bft) W 260 0 min 0,000 mm 0,0 UV-I 49 W/m 6,0 C 8,9 C 4,8 km/h (1 Bft) 100,00 %
21.10.2016 16:44 8,9 C 83 % 1014,2 hPa 0,0 l/m 5,4 km/h (1 Bft) W-NW 294 0 min 0,000 mm 0,0 UV-I 43 W/m 6,2 C 8,9 C 8,0 km/h (2 Bft) 100,00 %
21.10.2016 16:46 8,8 C 83 % 1014,3 hPa 0,0 l/m 5,1 km/h (1 Bft) W-NW 298 0 min 0,000 mm 0,0 UV-I 44 W/m 6,1 C 8,8 C 9,7 km/h (2 Bft) 100,00 %
21.10.2016 16:48 8,8 C 82 % 1014,3 hPa 0,0 l/m 5,1 km/h (1 Bft) W 266 0 min 0,000 mm 0,0 UV-I 46 W/m 5,9 C 8,8 C 11,3 km/h (2 Bft) 100,00 %
21.10.2016 16:50 8,8 C 83 % 1014,3 hPa 0,0 l/m 2,5 km/h (1 Bft) W 267 0 min 0,000 mm 0,0 UV-I 43 W/m 6,1 C 8,8 C 6,4 km/h (2 Bft) 100,00 %
21.10.2016 16:52 8,8 C 83 % 1014,4 hPa 0,0 l/m 3,4 km/h (1 Bft) W-NW 291 0 min 0,000 mm 0,0 UV-I 39 W/m 6,1 C 8,8 C 6,4 km/h (2 Bft) 100,00 %
21.10.2016 16:54 8,8 C 83 % 1014,3 hPa 0,0 l/m 4,2 km/h (1 Bft) NW 309 0 min 0,000 mm 0,0 UV-I 39 W/m 6,1 C 8,8 C 6,4 km/h (2 Bft) 100,00 %
21.10.2016 16:56 8,7 C 83 % 1014,3 hPa 0,0 l/m 6,4 km/h (2 Bft) W-SW 256 0 min 0,000 mm 0,0 UV-I 41 W/m 6,0 C 8,7 C 11,3 km/h (2 Bft) 100,00 %
21.10.2016 16:58 8,7 C 83 % 1014,4 hPa 0,0 l/m 4,2 km/h (1 Bft) W-NW 283 0 min 0,000 mm 0,0 UV-I 42 W/m 6,0 C 8,7 C 6,4 km/h (2 Bft) 100,00 %
21.10.2016 17:00 8,7 C 84 % 1014,4 hPa 0,0 l/m 5,1 km/h (1 Bft) W-SW 253 0 min 0,000 mm 0,0 UV-I 36 W/m 6,2 C 8,7 C 9,7 km/h (2 Bft) 100,00 %
21.10.2016 17:02 8,7 C 83 % 1014,5 hPa 0,0 l/m 4,3 km/h (1 Bft) W 272 0 min 0,051 mm 0,0 UV-I 30 W/m 6,0 C 8,7 C 8,0 km/h (2 Bft) 100,00 %
21.10.2016 17:04 8,7 C 83 % 1014,5 hPa 0,0 l/m 4,0 km/h (1 Bft) W 263 0 min 0,000 mm 0,0 UV-I 32 W/m 6,0 C 8,7 C 6,4 km/h (2 Bft) 100,00 %
21.10.2016 17:06 8,6 C 83 % 1014,5 hPa 0,0 l/m 3,7 km/h (1 Bft) W 273 0 min 0,000 mm 0,0 UV-I 40 W/m 5,9 C 8,6 C 6,4 km/h (2 Bft) 100,00 %
21.10.2016 17:09 8,6 C 84 % 1014,5 hPa 0,0 l/m 3,0 km/h (1 Bft) W 271 0 min 0,000 mm 0,0 UV-I 41 W/m 6,1 C 8,6 C 6,4 km/h (2 Bft) 100,00 %
21.10.2016 17:10 8,6 C 84 % 1014,5 hPa 0,0 l/m 1,6 km/h (1 Bft) W 280 0 min 0,000 mm 0,0 UV-I 34 W/m 6,1 C 8,6 C 4,8 km/h (1 Bft) 100,00 %
21.10.2016 17:12 8,6 C 84 % 1014,5 hPa 0,0 l/m 4,6 km/h (1 Bft) W-NW 286 0 min 0,000 mm 0,0 UV-I 34 W/m 6,1 C 8,6 C 6,4 km/h (2 Bft) 100,00 %
21.10.2016 17:14 8,6 C 85 % 1014,5 hPa 0,0 l/m 0,5 km/h (0 Bft) W-SW 244 0 min 0,000 mm 0,0 UV-I 37 W/m 6,2 C 8,6 C 4,8 km/h (1 Bft) 100,00 %
21.10.2016 17:16 8,6 C 84 % 1014,5 hPa 0,0 l/m 3,7 km/h (1 Bft) W 274 0 min 0,000 mm 0,0 UV-I 35 W/m 6,1 C 8,6 C 6,4 km/h (2 Bft) 98,11 %
21.10.2016 17:18 8,6 C 84 % 1014,5 hPa 0,0 l/m 0,5 km/h (0 Bft) W 274 0 min 0,000 mm 0,0 UV-I 29 W/m 6,1 C 8,6 C 1,6 km/h (1 Bft) 100,00 %
21.10.2016 17:20 8,6 C 85 % 1014,5 hPa 0,0 l/m 5,5 km/h (1 Bft) W-SW 244 0 min 0,000 mm 0,0 UV-I 25 W/m 6,2 C 8,6 C 11,3 km/h (2 Bft) 100,00 %
21.10.2016 17:22 8,5 C 84 % 1014,5 hPa 0,0 l/m 2,9 km/h (1 Bft) W-SW 244 0 min 0,000 mm 0,0 UV-I 21 W/m 6,0 C 8,5 C 4,8 km/h (1 Bft) 97,87 %
21.10.2016 17:24 8,5 C 84 % 1014,5 hPa 0,0 l/m 4,1 km/h (1 Bft) W-SW 238 0 min 0,000 mm 0,0 UV-I 17 W/m 6,0 C 8,5 C 6,4 km/h (2 Bft) 98,00 %
21.10.2016 17:26 8,4 C 84 % 1014,6 hPa 0,0 l/m 4,3 km/h (1 Bft) W-NW 284 0 min 0,000 mm 0,0 UV-I 15 W/m 5,9 C 8,4 C 6,4 km/h (2 Bft) 97,56 %
21.10.2016 17:28 8,4 C 84 % 1014,6 hPa 0,0 l/m 3,8 km/h (1 Bft) W-NW 286 0 min 0,000 mm 0,0 UV-I 14 W/m 5,9 C 8,4 C 6,4 km/h (2 Bft) 96,23 %
21.10.2016 17:30 8,4 C 84 % 1014,6 hPa 0,0 l/m 4,3 km/h (1 Bft) W 261 0 min 0,000 mm 0,0 UV-I 13 W/m 5,9 C 8,4 C 9,7 km/h (2 Bft) 97,56 %
21.10.2016 17:32 8,4 C 84 % 1014,6 hPa 0,0 l/m 4,1 km/h (1 Bft) W-SW 247 0 min 0,000 mm 0,0 UV-I 12 W/m 5,9 C 8,4 C 9,7 km/h (2 Bft) 97,87 %
21.10.2016 17:34 8,4 C 84 % 1014,6 hPa 0,0 l/m 4,6 km/h (1 Bft) W-NW 294 0 min 0,000 mm 0,0 UV-I 14 W/m 5,9 C 8,4 C 9,7 km/h (2 Bft) 97,87 %
21.10.2016 17:36 8,4 C 84 % 1014,6 hPa 0,0 l/m 3,7 km/h (1 Bft) S-SW 210 0 min 0,000 mm 0,0 UV-I 17 W/m 5,9 C 8,4 C 8,0 km/h (2 Bft) 95,74 %
21.10.2016 17:38 8,3 C 84 % 1014,6 hPa 0,0 l/m 3,5 km/h (1 Bft) W-NW 287 0 min 0,000 mm 0,0 UV-I 18 W/m 5,8 C 8,3 C 4,8 km/h (1 Bft) 98,00 %
21.10.2016 17:40 8,3 C 84 % 1014,6 hPa 0,0 l/m 3,5 km/h (1 Bft) W-SW 245 0 min 0,000 mm 0,0 UV-I 19 W/m 5,8 C 8,3 C 6,4 km/h (2 Bft) 97,37 %
21.10.2016 17:42 8,3 C 84 % 1014,5 hPa 0,0 l/m 2,8 km/h (1 Bft) W-SW 245 0 min 0,000 mm 0,0 UV-I 21 W/m 5,8 C 8,3 C 4,8 km/h (1 Bft) 98,11 %
21.10.2016 17:44 8,3 C 84 % 1014,5 hPa 0,0 l/m 3,1 km/h (1 Bft) W-NW 285 0 min 0,000 mm 0,0 UV-I 20 W/m 5,8 C 8,3 C 4,8 km/h (1 Bft) 96,23 %
21.10.2016 17:46 8,3 C 84 % 1014,5 hPa 0,0 l/m 2,3 km/h (1 Bft) W-SW 243 0 min 0,000 mm 0,0 UV-I 18 W/m 5,8 C 8,3 C 4,8 km/h (1 Bft) 100,00 %
21.10.2016 17:48 8,2 C 84 % 1014,5 hPa 0,0 l/m 5,0 km/h (1 Bft) W-SW 252 0 min 0,000 mm 0,0 UV-I 15 W/m 5,7 C 8,2 C 9,7 km/h (2 Bft) 96,00 %
21.10.2016 17:50 8,2 C 83 % 1014,5 hPa 0,0 l/m 3,0 km/h (1 Bft) W 276 0 min 0,000 mm 0,0 UV-I 12 W/m 5,5 C 8,2 C 6,4 km/h (2 Bft) 97,87 %
21.10.2016 17:52 8,2 C 83 % 1014,5 hPa 0,0 l/m 3,4 km/h (1 Bft) NW 305 2 min 0,000 mm 0,0 UV-I 10 W/m 5,5 C 8,2 C 4,8 km/h (1 Bft) 98,00 %
21.10.2016 17:54 8,1 C 84 % 1014,5 hPa 0,0 l/m 1,7 km/h (1 Bft) W 267 0 min 0,000 mm 0,0 UV-I 9 W/m 5,6 C 8,1 C 9,7 km/h (2 Bft) 97,56 %
21.10.2016 17:56 8,0 C 84 % 1014,5 hPa 0,0 l/m 3,9 km/h (1 Bft) W-SW 258 0 min 0,000 mm 0,0 UV-I 9 W/m 5,5 C 8,0 C 6,4 km/h (2 Bft) 100,00 %
21.10.2016 17:58 7,9 C 84 % 1014,5 hPa 0,0 l/m 2,9 km/h (1 Bft) W 259 0 min 0,000 mm 0,0 UV-I 7 W/m 5,4 C 7,9 C 6,4 km/h (2 Bft) 100,00 %
21.10.2016 18:00 7,9 C 84 % 1014,5 hPa 0,0 l/m 3,2 km/h (1 Bft) W 259 0 min 0,000 mm 0,0 UV-I 7 W/m 5,4 C 7,9 C 4,8 km/h (1 Bft) 93,62 %
21.10.2016 18:02 7,9 C 85 % 1014,5 hPa 0,0 l/m 4,7 km/h (1 Bft) W-SW 256 0 min 0,025 mm 0,0 UV-I 5 W/m 5,5 C 7,9 C 6,4 km/h (2 Bft) 100,00 %
21.10.2016 18:04 7,9 C 84 % 1014,6 hPa 0,0 l/m 4,6 km/h (1 Bft) W-SW 252 0 min 0,000 mm 0,0 UV-I 5 W/m 5,4 C 7,9 C 9,7 km/h (2 Bft) 100,00 %
21.10.2016 18:06 7,9 C 85 % 1014,6 hPa 0,0 l/m 4,5 km/h (1 Bft) W-SW 257 0 min 0,000 mm 0,0 UV-I 5 W/m 5,5 C 7,9 C 6,4 km/h (2 Bft) 98,00 %
21.10.2016 18:08 7,9 C 85 % 1014,6 hPa 0,0 l/m 5,1 km/h (1 Bft) W 259 0 min 0,000 mm 0,0 UV-I 0 W/m 5,5 C 7,9 C 9,7 km/h (2 Bft) 100,00 %
21.10.2016 18:10 7,9 C 85 % 1014,5 hPa 0,0 l/m 5,4 km/h (1 Bft) W 261 0 min 0,000 mm 0,0 UV-I 0 W/m 5,5 C 7,9 C 9,7 km/h (2 Bft) 97,87 %
21.10.2016 18:12 7,9 C 85 % 1014,6 hPa 0,0 l/m 4,9 km/h (1 Bft) W 268 0 min 0,000 mm 0,0 UV-I 0 W/m 5,5 C 7,9 C 8,0 km/h (2 Bft) 100,00 %
21.10.2016 18:14 7,8 C 85 % 1014,6 hPa 0,0 l/m 5,3 km/h (1 Bft) W 259 0 min 0,000 mm 0,0 UV-I 0 W/m 5,4 C 7,8 C 6,4 km/h (2 Bft) 100,00 %
21.10.2016 18:16 7,9 C 85 % 1014,5 hPa 0,0 l/m 4,9 km/h (1 Bft) W-SW 257 0 min 0,000 mm 0,0 UV-I 0 W/m 5,5 C 7,9 C 8,0 km/h (2 Bft) 100,00 %
21.10.2016 18:18 7,8 C 85 % 1014,6 hPa 0,0 l/m 5,7 km/h (1 Bft) W 261 0 min 0,000 mm 0,0 UV-I 0 W/m 5,4 C 7,8 C 6,4 km/h (2 Bft) 100,00 %
21.10.2016 18:20 7,8 C 84 % 1014,4 hPa 0,0 l/m 3,9 km/h (1 Bft) W 263 0 min 0,000 mm 0,0 UV-I 0 W/m 5,3 C 7,8 C 6,4 km/h (2 Bft) 100,00 %
21.10.2016 18:22 7,8 C 84 % 1014,5 hPa 0,0 l/m 2,5 km/h (1 Bft) W 273 0 min 0,000 mm 0,0 UV-I 0 W/m 5,3 C 7,8 C 4,8 km/h (1 Bft) 100,00 %
21.10.2016 18:24 7,8 C 85 % 1014,5 hPa 0,0 l/m 2,7 km/h (1 Bft) W-SW 252 0 min 0,000 mm 0,0 UV-I 0 W/m 5,4 C 7,8 C 4,8 km/h (1 Bft) 100,00 %
21.10.2016 18:26 7,8 C 85 % 1014,5 hPa 0,0 l/m 2,3 km/h (1 Bft) W-SW 252 0 min 0,000 mm 0,0 UV-I 0 W/m 5,4 C 7,8 C 3,2 km/h (1 Bft) 98,00 %
21.10.2016 18:28 7,8 C 85 % 1014,5 hPa 0,0 l/m 2,9 km/h (1 Bft) W-SW 252 0 min 0,000 mm 0,0 UV-I 0 W/m 5,4 C 7,8 C 4,8 km/h (1 Bft) 100,00 %
21.10.2016 18:30 7,8 C 85 % 1014,5 hPa 0,0 l/m 3,9 km/h (1 Bft) W-SW 252 0 min 0,000 mm 0,0 UV-I 0 W/m 5,4 C 7,8 C 6,4 km/h (2 Bft) 94,87 %
21.10.2016 18:32 7,8 C 85 % 1014,6 hPa 0,0 l/m 3,6 km/h (1 Bft) W-SW 252 0 min 0,000 mm 0,0 UV-I 0 W/m 5,4 C 7,8 C 6,4 km/h (2 Bft) 100,00 %
21.10.2016 18:34 7,8 C 85 % 1014,6 hPa 0,0 l/m 4,1 km/h (1 Bft) W-SW 245 0 min 0,000 mm 0,0 UV-I 0 W/m 5,4 C 7,8 C 6,4 km/h (2 Bft) 100,00 %
21.10.2016 18:36 7,8 C 85 % 1014,6 hPa 0,0 l/m 4,0 km/h (1 Bft) W-SW 248 0 min 0,000 mm 0,0 UV-I 0 W/m 5,4 C 7,8 C 6,4 km/h (2 Bft) 100,00 %
21.10.2016 18:38 7,8 C 85 % 1014,6 hPa 0,0 l/m 3,6 km/h (1 Bft) W-SW 248 0 min 0,000 mm 0,0 UV-I 0 W/m 5,4 C 7,8 C 4,8 km/h (1 Bft) 100,00 %
21.10.2016 18:40 7,8 C 85 % 1014,7 hPa 0,0 l/m 3,2 km/h (1 Bft) W-SW 248 0 min 0,000 mm 0,0 UV-I 0 W/m 5,4 C 7,8 C 4,8 km/h (1 Bft) 97,87 %
21.10.2016 18:42 7,8 C 85 % 1014,7 hPa 0,0 l/m 4,2 km/h (1 Bft) W-SW 248 0 min 0,000 mm 0,0 UV-I 0 W/m 5,4 C 7,8 C 6,4 km/h (2 Bft) 100,00 %
21.10.2016 18:44 7,7 C 85 % 1014,7 hPa 0,0 l/m 4,1 km/h (1 Bft) W-SW 248 0 min 0,000 mm 0,0 UV-I 0 W/m 5,3 C 7,7 C 6,4 km/h (2 Bft) 100,00 %
21.10.2016 18:46 7,7 C 85 % 1014,7 hPa 0,0 l/m 4,3 km/h (1 Bft) W-SW 248 0 min 0,000 mm 0,0 UV-I 0 W/m 5,3 C 7,7 C 6,4 km/h (2 Bft) 100,00 %
21.10.2016 18:48 7,7 C 85 % 1014,7 hPa 0,0 l/m 3,7 km/h (1 Bft) W-SW 248 0 min 0,000 mm 0,0 UV-I 0 W/m 5,3 C 7,7 C 4,8 km/h (1 Bft) 98,00 %
21.10.2016 18:50 7,6 C 86 % 1014,7 hPa 0,0 l/m 5,2 km/h (1 Bft) W-SW 250 0 min 0,000 mm 0,0 UV-I 0 W/m 5,4 C 7,6 C 6,4 km/h (2 Bft) 100,00 %
21.10.2016 18:52 7,6 C 85 % 1014,7 hPa 0,0 l/m 6,1 km/h (2 Bft) W-SW 252 0 min 0,000 mm 0,0 UV-I 0 W/m 5,2 C 7,6 C 11,3 km/h (2 Bft) 100,00 %
21.10.2016 18:54 7,6 C 85 % 1014,7 hPa 0,0 l/m 6,2 km/h (2 Bft) W-SW 255 0 min 0,000 mm 0,0 UV-I 0 W/m 5,2 C 7,6 C 9,7 km/h (2 Bft) 100,00 %
21.10.2016 18:56 7,6 C 85 % 1014,8 hPa 0,0 l/m 7,0 km/h (2 Bft) W-SW 254 0 min 0,000 mm 0,0 UV-I 0 W/m 5,2 C 7,1 C 11,3 km/h (2 Bft) 100,00 %
21.10.2016 18:58 7,6 C 86 % 1014,9 hPa 0,0 l/m 8,4 km/h (2 Bft) W-SW 248 0 min 0,000 mm 0,0 UV-I 0 W/m 5,4 C 6,0 C 12,9 km/h (3 Bft) 100,00 %
21.10.2016 19:00 7,6 C 86 % 1014,8 hPa 0,0 l/m 8,5 km/h (2 Bft) W-SW 245 0 min 0,000 mm 0,0 UV-I 0 W/m 5,4 C 6,0 C 12,9 km/h (3 Bft) 100,00 %
21.10.2016 19:02 7,6 C 85 % 1014,9 hPa 0,0 l/m 7,3 km/h (2 Bft) W-SW 246 0 min 0,000 mm 0,0 UV-I 0 W/m 5,2 C 6,9 C 11,3 km/h (2 Bft) 100,00 %
21.10.2016 19:04 7,6 C 86 % 1014,9 hPa 0,0 l/m 5,8 km/h (2 Bft) W-SW 251 0 min 0,000 mm 0,0 UV-I 0 W/m 5,4 C 7,6 C 9,7 km/h (2 Bft) 100,00 %
21.10.2016 19:06 7,6 C 86 % 1014,9 hPa 0,0 l/m 7,8 km/h (2 Bft) W 262 0 min 0,000 mm 0,0 UV-I 0 W/m 5,4 C 6,5 C 14,5 km/h (3 Bft) 100,00 %
21.10.2016 19:08 7,6 C 86 % 1015,0 hPa 0,0 l/m 6,8 km/h (2 Bft) W-SW 249 0 min 0,000 mm 0,0 UV-I 0 W/m 5,4 C 7,3 C 11,3 km/h (2 Bft) 100,00 %
21.10.2016 19:10 7,6 C 86 % 1015,0 hPa 0,0 l/m 5,2 km/h (1 Bft) W-SW 248 0 min 0,000 mm 0,0 UV-I 0 W/m 5,4 C 7,6 C 9,7 km/h (2 Bft) 100,00 %
21.10.2016 19:12 7,6 C 86 % 1015,0 hPa 0,0 l/m 5,6 km/h (1 Bft) W-SW 238 0 min 0,000 mm 0,0 UV-I 0 W/m 5,4 C 7,6 C 12,9 km/h (3 Bft) 100,00 %
21.10.2016 19:14 7,6 C 86 % 1015,0 hPa 0,0 l/m 6,7 km/h (2 Bft) W-SW 242 0 min 0,000 mm 0,0 UV-I 0 W/m 5,4 C 7,4 C 11,3 km/h (2 Bft) 100,00 %
21.10.2016 19:16 7,7 C 86 % 1015,0 hPa 0,0 l/m 7,2 km/h (2 Bft) SW 232 0 min 0,000 mm 0,0 UV-I 0 W/m 5,5 C 7,1 C 12,9 km/h (3 Bft) 100,00 %
21.10.2016 19:18 7,7 C 85 % 1015,1 hPa 0,0 l/m 4,6 km/h (1 Bft) W 278 0 min 0,000 mm 0,0 UV-I 0 W/m 5,3 C 7,7 C 8,0 km/h (2 Bft) 97,87 %
21.10.2016 19:20 7,7 C 86 % 1015,1 hPa 0,0 l/m 3,9 km/h (1 Bft) W-SW 254 0 min 0,000 mm 0,0 UV-I 0 W/m 5,5 C 7,7 C 6,4 km/h (2 Bft) 100,00 %
21.10.2016 19:22 7,7 C 86 % 1015,1 hPa 0,0 l/m 4,9 km/h (1 Bft) W-SW 244 0 min 0,000 mm 0,0 UV-I 0 W/m 5,5 C 7,7 C 8,0 km/h (2 Bft) 100,00 %
21.10.2016 19:24 7,7 C 86 % 1015,1 hPa 0,0 l/m 3,9 km/h (1 Bft) W-SW 251 0 min 0,000 mm 0,0 UV-I 0 W/m 5,5 C 7,7 C 6,4 km/h (2 Bft) 100,00 %
21.10.2016 19:26 7,7 C 86 % 1015,1 hPa 0,0 l/m 5,1 km/h (1 Bft) W-SW 252 0 min 0,000 mm 0,0 UV-I 0 W/m 5,5 C 7,7 C 8,0 km/h (2 Bft) 97,87 %
21.10.2016 19:28 7,7 C 86 % 1015,1 hPa 0,0 l/m 4,3 km/h (1 Bft) W 263 0 min 0,000 mm 0,0 UV-I 0 W/m 5,5 C 7,7 C 6,4 km/h (2 Bft) 95,74 %
21.10.2016 19:30 7,7 C 86 % 1015,1 hPa 0,0 l/m 3,6 km/h (1 Bft) W 263 0 min 0,000 mm 0,0 UV-I 0 W/m 5,5 C 7,7 C 4,8 km/h (1 Bft) 100,00 %
21.10.2016 19:32 7,7 C 86 % 1015,2 hPa 0,0 l/m 4,2 km/h (1 Bft) W 263 0 min 0,000 mm 0,0 UV-I 0 W/m 5,5 C 7,7 C 6,4 km/h (2 Bft) 96,00 %
21.10.2016 19:34 7,6 C 86 % 1015,1 hPa 0,0 l/m 4,7 km/h (1 Bft) W-SW 255 0 min 0,000 mm 0,0 UV-I 0 W/m 5,4 C 7,6 C 6,4 km/h (2 Bft) 97,87 %
21.10.2016 19:36 7,6 C 86 % 1015,2 hPa 0,0 l/m 5,0 km/h (1 Bft) W-SW 255 0 min 0,000 mm 0,0 UV-I 0 W/m 5,4 C 7,6 C 6,4 km/h (2 Bft) 96,23 %
21.10.2016 19:38 7,6 C 87 % 1015,2 hPa 0,0 l/m 5,3 km/h (1 Bft) W-SW 240 0 min 0,000 mm 0,0 UV-I 0 W/m 5,6 C 7,6 C 8,0 km/h (2 Bft) 97,37 %
21.10.2016 19:40 7,6 C 87 % 1015,2 hPa 0,0 l/m 5,1 km/h (1 Bft) W 260 0 min 0,000 mm 0,0 UV-I 0 W/m 5,6 C 7,6 C 6,4 km/h (2 Bft) 96,23 %
21.10.2016 19:42 7,6 C 87 % 1015,2 hPa 0,0 l/m 4,9 km/h (1 Bft) W 261 0 min 0,000 mm 0,0 UV-I 0 W/m 5,6 C 7,6 C 6,4 km/h (2 Bft) 97,44 %
21.10.2016 19:44 7,6 C 88 % 1015,3 hPa 0,0 l/m 4,3 km/h (1 Bft) W 263 0 min 0,000 mm 0,0 UV-I 0 W/m 5,7 C 7,6 C 9,7 km/h (2 Bft) 98,08 %
21.10.2016 19:46 7,6 C 88 % 1015,2 hPa 0,0 l/m 3,3 km/h (1 Bft) W 263 0 min 0,000 mm 0,0 UV-I 0 W/m 5,7 C 7,6 C 6,4 km/h (2 Bft) 92,00 %
21.10.2016 19:48 7,5 C 88 % 1015,2 hPa 0,0 l/m 4,1 km/h (1 Bft) W 263 0 min 0,000 mm 0,0 UV-I 0 W/m 5,6 C 7,5 C 4,8 km/h (1 Bft) 97,87 %
21.10.2016 19:50 7,4 C 88 % 1015,2 hPa 0,0 l/m 3,6 km/h (1 Bft) W 263 0 min 0,000 mm 0,0 UV-I 0 W/m 5,5 C 7,4 C 4,8 km/h (1 Bft) 97,92 %
21.10.2016 19:52 7,4 C 89 % 1015,2 hPa 0,0 l/m 3,8 km/h (1 Bft) W 261 0 min 0,000 mm 0,0 UV-I 0 W/m 5,7 C 7,4 C 6,4 km/h (2 Bft) 97,37 %
21.10.2016 19:54 7,4 C 89 % 1015,2 hPa 0,0 l/m 4,0 km/h (1 Bft) W-SW 247 0 min 0,000 mm 0,0 UV-I 0 W/m 5,7 C 7,4 C 6,4 km/h (2 Bft) 96,00 %
21.10.2016 19:56 7,4 C 89 % 1015,3 hPa 0,0 l/m 4,6 km/h (1 Bft) W-SW 246 0 min 0,000 mm 0,0 UV-I 0 W/m 5,7 C 7,4 C 6,4 km/h (2 Bft) 98,00 %
21.10.2016 19:58 7,4 C 88 % 1015,2 hPa 0,0 l/m 5,6 km/h (1 Bft) W 261 0 min 0,000 mm 0,0 UV-I 0 W/m 5,5 C 7,4 C 11,3 km/h (2 Bft) 98,00 %
21.10.2016 20:00 7,4 C 89 % 1015,2 hPa 0,0 l/m 6,5 km/h (2 Bft) SW 233 0 min 0,000 mm 0,0 UV-I 0 W/m 5,7 C 7,3 C 11,3 km/h (2 Bft) 97,87 %
21.10.2016 20:02 7,4 C 88 % 1015,3 hPa 0,0 l/m 6,5 km/h (2 Bft) W 260 0 min 0,000 mm 0,0 UV-I 0 W/m 5,5 C 7,3 C 11,3 km/h (2 Bft) 100,00 %
21.10.2016 20:04 7,4 C 88 % 1015,3 hPa 0,0 l/m 5,6 km/h (1 Bft) W 259 0 min 0,000 mm 0,0 UV-I 0 W/m 5,5 C 7,4 C 11,3 km/h (2 Bft) 98,00 %
21.10.2016 20:06 7,4 C 89 % 1015,3 hPa 0,0 l/m 7,4 km/h (2 Bft) W-SW 257 0 min 0,000 mm 0,0 UV-I 0 W/m 5,7 C 6,6 C 12,9 km/h (3 Bft) 100,00 %
21.10.2016 20:08 7,3 C 89 % 1015,3 hPa 0,0 l/m 9,1 km/h (2 Bft) W-SW 251 0 min 0,000 mm 0,0 UV-I 0 W/m 5,6 C 5,2 C 14,5 km/h (3 Bft) 100,00 %
21.10.2016 20:10 7,3 C 89 % 1015,3 hPa 0,0 l/m 7,9 km/h (2 Bft) W-SW 253 0 min 0,000 mm 0,0 UV-I 0 W/m 5,6 C 6,1 C 12,9 km/h (3 Bft) 100,00 %
21.10.2016 20:12 7,3 C 89 % 1015,3 hPa 0,0 l/m 8,9 km/h (2 Bft) W-SW 257 0 min 0,000 mm 0,0 UV-I 0 W/m 5,6 C 5,4 C 14,5 km/h (3 Bft) 100,00 %
21.10.2016 20:14 7,3 C 89 % 1015,4 hPa 0,0 l/m 5,8 km/h (2 Bft) W 262 0 min 0,000 mm 0,0 UV-I 0 W/m 5,6 C 7,3 C 11,3 km/h (2 Bft) 100,00 %
21.10.2016 20:16 7,3 C 89 % 1015,4 hPa 0,0 l/m 6,3 km/h (2 Bft) W-SW 241 0 min 0,000 mm 0,0 UV-I 0 W/m 5,6 C 7,3 C 9,7 km/h (2 Bft) 97,87 %
21.10.2016 20:18 7,3 C 89 % 1015,5 hPa 0,0 l/m 4,8 km/h (1 Bft) SW 236 0 min 0,000 mm 0,0 UV-I 0 W/m 5,6 C 7,3 C 8,0 km/h (2 Bft) 97,14 %
21.10.2016 20:20 7,3 C 89 % 1015,5 hPa 0,0 l/m 4,3 km/h (1 Bft) W 277 0 min 0,000 mm 0,0 UV-I 0 W/m 5,6 C 7,3 C 6,4 km/h (2 Bft) 100,00 %
21.10.2016 20:22 7,3 C 89 % 1015,5 hPa 0,0 l/m 6,3 km/h (2 Bft) SW 228 0 min 0,000 mm 0,0 UV-I 0 W/m 5,6 C 7,3 C 11,3 km/h (2 Bft) 98,00 %
21.10.2016 20:24 7,2 C 90 % 1015,5 hPa 0,0 l/m 5,5 km/h (1 Bft) W-SW 242 0 min 0,000 mm 0,0 UV-I 0 W/m 5,7 C 7,2 C 8,0 km/h (2 Bft) 100,00 %
21.10.2016 20:26 7,2 C 90 % 1015,5 hPa 0,0 l/m 6,9 km/h (2 Bft) W 261 0 min 0,000 mm 0,0 UV-I 0 W/m 5,7 C 6,8 C 11,3 km/h (2 Bft) 100,00 %
21.10.2016 20:28 7,2 C 90 % 1015,5 hPa 0,0 l/m 6,1 km/h (2 Bft) W-SW 258 0 min 0,000 mm 0,0 UV-I 0 W/m 5,7 C 7,2 C 11,3 km/h (2 Bft) 100,00 %
21.10.2016 20:30 7,2 C 90 % 1015,6 hPa 0,0 l/m 2,7 km/h (1 Bft) W-SW 258 0 min 0,000 mm 0,0 UV-I 0 W/m 5,7 C 7,2 C 4,8 km/h (1 Bft) 97,56 %
21.10.2016 20:32 7,2 C 90 % 1015,6 hPa 0,0 l/m 1,6 km/h (1 Bft) W-SW 258 0 min 0,000 mm 0,0 UV-I 0 W/m 5,7 C 7,2 C 3,2 km/h (1 Bft) 100,00 %
21.10.2016 20:34 7,2 C 90 % 1015,6 hPa 0,0 l/m 1,9 km/h (1 Bft) W-SW 258 0 min 0,000 mm 0,0 UV-I 0 W/m 5,7 C 7,2 C 3,2 km/h (1 Bft) 100,00 %
21.10.2016 20:36 7,2 C 90 % 1015,5 hPa 0,0 l/m 1,0 km/h (0 Bft) W-SW 258 0 min 0,000 mm 0,0 UV-I 0 W/m 5,7 C 7,2 C 3,2 km/h (1 Bft) 100,00 %
21.10.2016 20:38 7,2 C 90 % 1015,6 hPa 0,0 l/m 1,2 km/h (1 Bft) W-SW 258 0 min 0,000 mm 0,0 UV-I 0 W/m 5,7 C 7,2 C 3,2 km/h (1 Bft) 98,00 %
21.10.2016 20:40 7,1 C 91 % 1015,6 hPa 0,0 l/m 1,0 km/h (0 Bft) W-SW 258 0 min 0,000 mm 0,0 UV-I 0 W/m 5,7 C 7,1 C 3,2 km/h (1 Bft) 100,00 %
21.10.2016 20:42 7,1 C 91 % 1015,6 hPa 0,0 l/m 1,5 km/h (1 Bft) W-SW 258 0 min 0,000 mm 0,0 UV-I 0 W/m 5,7 C 7,1 C 3,2 km/h (1 Bft) 98,00 %
21.10.2016 20:44 7,1 C 91 % 1015,6 hPa 0,0 l/m 0,3 km/h (0 Bft) W-SW 258 0 min 0,000 mm 0,0 UV-I 0 W/m 5,7 C 7,1 C 1,6 km/h (1 Bft) 100,00 %
21.10.2016 20:46 7,1 C 91 % 1015,6 hPa 0,0 l/m 0,8 km/h (0 Bft) W 259 0 min 0,000 mm 0,0 UV-I 0 W/m 5,7 C 7,1 C 3,2 km/h (1 Bft) 100,00 %
21.10.2016 20:48 7,0 C 91 % 1015,6 hPa 0,0 l/m 0,1 km/h (0 Bft) W 259 0 min 0,000 mm 0,0 UV-I 0 W/m 5,6 C 7,0 C 1,6 km/h (1 Bft) 100,00 %
21.10.2016 20:50 7,0 C 91 % 1015,6 hPa 0,0 l/m 0,7 km/h (0 Bft) W 259 0 min 0,000 mm 0,0 UV-I 0 W/m 5,6 C 7,0 C 3,2 km/h (1 Bft) 97,87 %
21.10.2016 20:52 7,0 C 91 % 1015,7 hPa 0,0 l/m 1,7 km/h (1 Bft) W 259 0 min 0,000 mm 0,0 UV-I 0 W/m 5,6 C 7,0 C 3,2 km/h (1 Bft) 100,00 %
21.10.2016 20:54 7,0 C 91 % 1015,7 hPa 0,0 l/m 2,8 km/h (1 Bft) W 259 0 min 0,000 mm 0,0 UV-I 0 W/m 5,6 C 7,0 C 4,8 km/h (1 Bft) 100,00 %
21.10.2016 20:56 6,9 C 91 % 1015,7 hPa 0,0 l/m 2,9 km/h (1 Bft) W 259 0 min 0,000 mm 0,0 UV-I 0 W/m 5,5 C 6,9 C 4,8 km/h (1 Bft) 100,00 %
21.10.2016 20:58 6,9 C 91 % 1015,7 hPa 0,0 l/m 3,1 km/h (1 Bft) W 259 0 min 0,000 mm 0,0 UV-I 0 W/m 5,5 C 6,9 C 4,8 km/h (1 Bft) 100,00 %
21.10.2016 21:00 6,9 C 91 % 1015,7 hPa 0,0 l/m 3,6 km/h (1 Bft) W-SW 242 0 min 0,000 mm 0,0 UV-I 0 W/m 5,5 C 6,9 C 6,4 km/h (2 Bft) 100,00 %
21.10.2016 21:02 6,9 C 91 % 1015,8 hPa 0,0 l/m 4,6 km/h (1 Bft) SW 230 0 min 0,000 mm 0,0 UV-I 0 W/m 5,5 C 6,9 C 6,4 km/h (2 Bft) 100,00 %
21.10.2016 21:04 6,9 C 91 % 1015,8 hPa 0,0 l/m 5,4 km/h (1 Bft) W-SW 242 0 min 0,000 mm 0,0 UV-I 0 W/m 5,5 C 6,9 C 6,4 km/h (2 Bft) 96,00 %
21.10.2016 21:06 6,9 C 91 % 1015,8 hPa 0,0 l/m 4,6 km/h (1 Bft) W-SW 244 0 min 0,000 mm 0,0 UV-I 0 W/m 5,5 C 6,9 C 6,4 km/h (2 Bft) 100,00 %
21.10.2016 21:08 6,8 C 91 % 1015,8 hPa 0,0 l/m 5,7 km/h (1 Bft) W-SW 240 0 min 0,000 mm 0,0 UV-I 0 W/m 5,4 C 6,8 C 8,0 km/h (2 Bft) 100,00 %
21.10.2016 21:10 6,8 C 91 % 1015,8 hPa 0,0 l/m 7,7 km/h (2 Bft) W-SW 251 0 min 0,000 mm 0,0 UV-I 0 W/m 5,4 C 5,7 C 11,3 km/h (2 Bft) 97,73 %
21.10.2016 21:12 6,8 C 91 % 1015,8 hPa 0,0 l/m 6,3 km/h (2 Bft) W-SW 254 0 min 0,000 mm 0,0 UV-I 0 W/m 5,4 C 6,8 C 11,3 km/h (2 Bft) 100,00 %
21.10.2016 21:14 6,8 C 91 % 1015,8 hPa 0,0 l/m 6,6 km/h (2 Bft) W-SW 253 0 min 0,000 mm 0,0 UV-I 0 W/m 5,4 C 6,7 C 9,7 km/h (2 Bft) 100,00 %
21.10.2016 21:16 6,9 C 90 % 1015,8 hPa 0,0 l/m 5,9 km/h (2 Bft) W-SW 257 0 min 0,000 mm 0,0 UV-I 0 W/m 5,4 C 6,9 C 8,0 km/h (2 Bft) 100,00 %
21.10.2016 21:18 6,9 C 90 % 1015,9 hPa 0,0 l/m 5,7 km/h (1 Bft) W 269 0 min 0,000 mm 0,0 UV-I 0 W/m 5,4 C 6,9 C 8,0 km/h (2 Bft) 100,00 %
21.10.2016 21:20 6,9 C 90 % 1015,9 hPa 0,0 l/m 5,7 km/h (1 Bft) W 263 0 min 0,000 mm 0,0 UV-I 0 W/m 5,4 C 6,9 C 9,7 km/h (2 Bft) 98,28 %
21.10.2016 21:22 6,8 C 90 % 1015,9 hPa 0,0 l/m 5,0 km/h (1 Bft) W-NW 287 0 min 0,000 mm 0,0 UV-I 0 W/m 5,3 C 6,8 C 8,0 km/h (2 Bft) 98,00 %
21.10.2016 21:24 6,8 C 90 % 1015,9 hPa 0,0 l/m 7,7 km/h (2 Bft) W-SW 257 0 min 0,000 mm 0,0 UV-I 0 W/m 5,3 C 5,7 C 11,3 km/h (2 Bft) 100,00 %
21.10.2016 21:26 6,8 C 90 % 1015,9 hPa 0,0 l/m 4,4 km/h (1 Bft) W 260 0 min 0,000 mm 0,0 UV-I 0 W/m 5,3 C 6,8 C 8,0 km/h (2 Bft) 100,00 %
21.10.2016 21:28 6,8 C 90 % 1015,8 hPa 0,0 l/m 3,0 km/h (1 Bft) W 281 0 min 0,000 mm 0,0 UV-I 0 W/m 5,3 C 6,8 C 6,4 km/h (2 Bft) 97,87 %
21.10.2016 21:30 6,8 C 90 % 1015,9 hPa 0,0 l/m 6,0 km/h (2 Bft) W-SW 240 0 min 0,000 mm 0,0 UV-I 0 W/m 5,3 C 6,8 C 9,7 km/h (2 Bft) 96,00 %
21.10.2016 21:32 6,7 C 90 % 1016,0 hPa 0,0 l/m 7,0 km/h (2 Bft) W 260 0 min 0,000 mm 0,0 UV-I 0 W/m 5,2 C 6,2 C 12,9 km/h (3 Bft) 97,56 %
21.10.2016 21:34 6,7 C 90 % 1016,0 hPa 0,0 l/m 6,5 km/h (2 Bft) W-SW 256 0 min 0,000 mm 0,0 UV-I 0 W/m 5,2 C 6,6 C 12,9 km/h (3 Bft) 96,00 %
21.10.2016 21:36 6,7 C 90 % 1016,0 hPa 0,0 l/m 5,1 km/h (1 Bft) W-SW 249 0 min 0,000 mm 0,0 UV-I 0 W/m 5,2 C 6,7 C 11,3 km/h (2 Bft) 97,56 %
21.10.2016 21:38 6,7 C 90 % 1016,0 hPa 0,0 l/m 5,5 km/h (1 Bft) W-SW 246 0 min 0,000 mm 0,0 UV-I 0 W/m 5,2 C 6,7 C 9,7 km/h (2 Bft) 98,21 %
21.10.2016 21:40 6,7 C 90 % 1016,0 hPa 0,0 l/m 5,0 km/h (1 Bft) SW 232 0 min 0,000 mm 0,0 UV-I 0 W/m 5,2 C 6,7 C 8,0 km/h (2 Bft) 97,37 %
21.10.2016 21:42 6,7 C 90 % 1016,0 hPa 0,0 l/m 5,3 km/h (1 Bft) W-SW 257 0 min 0,000 mm 0,0 UV-I 0 W/m 5,2 C 6,7 C 8,0 km/h (2 Bft) 98,00 %
21.10.2016 21:44 6,7 C 90 % 1016,0 hPa 0,0 l/m 5,3 km/h (1 Bft) W-SW 252 0 min 0,000 mm 0,0 UV-I 0 W/m 5,2 C 6,7 C 8,0 km/h (2 Bft) 98,11 %
21.10.2016 21:46 6,7 C 90 % 1016,0 hPa 0,0 l/m 6,8 km/h (2 Bft) W-SW 250 0 min 0,000 mm 0,0 UV-I 0 W/m 5,2 C 6,4 C 11,3 km/h (2 Bft) 95,74 %
21.10.2016 21:48 6,6 C 90 % 1016,1 hPa 0,0 l/m 6,5 km/h (2 Bft) W-SW 254 0 min 0,000 mm 0,0 UV-I 0 W/m 5,1 C 6,5 C 9,7 km/h (2 Bft) 97,62 %
21.10.2016 21:50 6,6 C 90 % 1016,1 hPa 0,0 l/m 6,4 km/h (2 Bft) W-SW 242 0 min 0,000 mm 0,0 UV-I 0 W/m 5,1 C 6,6 C 9,7 km/h (2 Bft) 97,37 %
21.10.2016 21:52 6,6 C 90 % 1016,1 hPa 0,0 l/m 5,6 km/h (1 Bft) W-SW 246 0 min 0,000 mm 0,0 UV-I 0 W/m 5,1 C 6,6 C 8,0 km/h (2 Bft) 94,00 %
21.10.2016 21:54 6,6 C 90 % 1016,1 hPa 0,0 l/m 4,1 km/h (1 Bft) W-SW 246 0 min 0,000 mm 0,0 UV-I 0 W/m 5,1 C 6,6 C 6,4 km/h (2 Bft) 96,23 %
21.10.2016 21:56 6,6 C 90 % 1016,1 hPa 0,0 l/m 4,4 km/h (1 Bft) W-SW 245 0 min 0,000 mm 0,0 UV-I 0 W/m 5,1 C 6,6 C 6,4 km/h (2 Bft) 98,00 %
21.10.2016 21:58 6,4 C 90 % 1016,1 hPa 0,0 l/m 4,2 km/h (1 Bft) W-SW 245 0 min 0,000 mm 0,0 UV-I 0 W/m 4,9 C 6,4 C 6,4 km/h (2 Bft) 97,56 %
21.10.2016 22:00 6,4 C 91 % 1016,1 hPa 0,0 l/m 3,9 km/h (1 Bft) W-SW 244 0 min 0,000 mm 0,0 UV-I 0 W/m 5,0 C 6,4 C 6,4 km/h (2 Bft) 98,00 %
21.10.2016 22:02 6,3 C 91 % 1016,1 hPa 0,0 l/m 3,8 km/h (1 Bft) W-SW 244 0 min 0,000 mm 0,0 UV-I 0 W/m 4,9 C 6,3 C 4,8 km/h (1 Bft) 97,87 %
21.10.2016 22:04 6,3 C 91 % 1016,1 hPa 0,0 l/m 3,5 km/h (1 Bft) W-SW 244 0 min 0,000 mm 0,0 UV-I 0 W/m 4,9 C 6,3 C 4,8 km/h (1 Bft) 97,56 %
21.10.2016 22:06 6,3 C 91 % 1016,1 hPa 0,0 l/m 3,7 km/h (1 Bft) W-SW 244 0 min 0,000 mm 0,0 UV-I 0 W/m 4,9 C 6,3 C 6,4 km/h (2 Bft) 100,00 %
21.10.2016 22:08 6,2 C 91 % 1016,2 hPa 0,0 l/m 4,7 km/h (1 Bft) W-SW 244 0 min 0,000 mm 0,0 UV-I 0 W/m 4,8 C 6,2 C 6,4 km/h (2 Bft) 100,00 %
21.10.2016 22:10 6,2 C 92 % 1016,2 hPa 0,0 l/m 3,6 km/h (1 Bft) W-SW 244 0 min 0,000 mm 0,0 UV-I 0 W/m 5,0 C 6,2 C 4,8 km/h (1 Bft) 98,00 %
21.10.2016 22:12 6,1 C 92 % 1016,2 hPa 0,0 l/m 4,9 km/h (1 Bft) W-SW 249 0 min 0,000 mm 0,0 UV-I 0 W/m 4,9 C 6,1 C 6,4 km/h (2 Bft) 100,00 %
21.10.2016 22:14 6,1 C 92 % 1016,1 hPa 0,0 l/m 4,8 km/h (1 Bft) W-SW 248 0 min 0,000 mm 0,0 UV-I 0 W/m 4,9 C 6,1 C 8,0 km/h (2 Bft) 100,00 %
21.10.2016 22:16 6,1 C 92 % 1016,1 hPa 0,0 l/m 6,3 km/h (2 Bft) W-SW 243 0 min 0,000 mm 0,0 UV-I 0 W/m 4,9 C 6,1 C 12,9 km/h (3 Bft) 100,00 %
21.10.2016 22:18 6,1 C 93 % 1016,2 hPa 0,0 l/m 5,9 km/h (2 Bft) W-SW 247 0 min 0,000 mm 0,0 UV-I 0 W/m 5,1 C 6,1 C 8,0 km/h (2 Bft) 98,11 %
21.10.2016 22:20 6,2 C 92 % 1016,2 hPa 0,0 l/m 5,0 km/h (1 Bft) W-SW 240 0 min 0,000 mm 0,0 UV-I 0 W/m 5,0 C 6,2 C 8,0 km/h (2 Bft) 98,00 %
21.10.2016 22:22 6,1 C 92 % 1016,1 hPa 0,0 l/m 6,3 km/h (2 Bft) W-SW 238 0 min 0,000 mm 0,0 UV-I 0 W/m 4,9 C 6,1 C 9,7 km/h (2 Bft) 97,44 %
21.10.2016 22:24 6,1 C 92 % 1016,1 hPa 0,0 l/m 4,2 km/h (1 Bft) W-SW 251 0 min 0,000 mm 0,0 UV-I 0 W/m 4,9 C 6,1 C 6,4 km/h (2 Bft) 100,00 %
21.10.2016 22:26 6,1 C 92 % 1016,1 hPa 0,0 l/m 4,5 km/h (1 Bft) W-SW 241 0 min 0,000 mm 0,0 UV-I 0 W/m 4,9 C 6,1 C 6,4 km/h (2 Bft) 98,00 %
21.10.2016 22:28 6,1 C 92 % 1016,1 hPa 0,0 l/m 4,7 km/h (1 Bft) SW 227 0 min 0,000 mm 0,0 UV-I 0 W/m 4,9 C 6,1 C 8,0 km/h (2 Bft) 100,00 %
21.10.2016 22:30 6,0 C 92 % 1016,2 hPa 0,0 l/m 5,5 km/h (1 Bft) SW 229 0 min 0,000 mm 0,0 UV-I 0 W/m 4,8 C 6,0 C 8,0 km/h (2 Bft) 100,00 %
21.10.2016 22:32 5,9 C 92 % 1016,2 hPa 0,0 l/m 4,9 km/h (1 Bft) SW 228 0 min 0,000 mm 0,0 UV-I 0 W/m 4,7 C 5,9 C 6,4 km/h (2 Bft) 100,00 %
21.10.2016 22:34 5,8 C 93 % 1016,2 hPa 0,0 l/m 5,3 km/h (1 Bft) SW 223 0 min 0,000 mm 0,0 UV-I 0 W/m 4,8 C 5,8 C 8,0 km/h (2 Bft) 100,00 %
21.10.2016 22:36 5,8 C 93 % 1016,2 hPa 0,0 l/m 5,8 km/h (2 Bft) SW 224 0 min 0,000 mm 0,0 UV-I 0 W/m 4,8 C 5,8 C 8,0 km/h (2 Bft) 100,00 %
21.10.2016 22:38 5,7 C 93 % 1016,3 hPa 0,0 l/m 6,0 km/h (2 Bft) SW 215 0 min 0,000 mm 0,0 UV-I 0 W/m 4,7 C 5,7 C 8,0 km/h (2 Bft) 97,56 %
21.10.2016 22:40 5,7 C 93 % 1016,3 hPa 0,0 l/m 5,3 km/h (1 Bft) W-SW 244 0 min 0,000 mm 0,0 UV-I 0 W/m 4,7 C 5,7 C 8,0 km/h (2 Bft) 100,00 %
21.10.2016 22:42 5,6 C 93 % 1016,3 hPa 0,0 l/m 6,2 km/h (2 Bft) SW 225 0 min 0,000 mm 0,0 UV-I 0 W/m 4,6 C 5,6 C 8,0 km/h (2 Bft) 98,00 %
21.10.2016 22:44 5,6 C 93 % 1016,3 hPa 0,0 l/m 6,7 km/h (2 Bft) S-SW 212 0 min 0,000 mm 0,0 UV-I 0 W/m 4,6 C 5,4 C 9,7 km/h (2 Bft) 100,00 %
21.10.2016 22:46 5,5 C 93 % 1016,3 hPa 0,0 l/m 6,1 km/h (2 Bft) SW 222 0 min 0,000 mm 0,0 UV-I 0 W/m 4,5 C 5,5 C 8,0 km/h (2 Bft) 100,00 %
21.10.2016 22:48 5,5 C 93 % 1016,4 hPa 0,0 l/m 5,4 km/h (1 Bft) SW 229 0 min 0,000 mm 0,0 UV-I 0 W/m 4,5 C 5,5 C 8,0 km/h (2 Bft) 100,00 %
21.10.2016 22:50 5,4 C 93 % 1016,4 hPa 0,0 l/m 5,6 km/h (1 Bft) SW 223 0 min 0,000 mm 0,0 UV-I 0 W/m 4,4 C 5,4 C 6,4 km/h (2 Bft) 100,00 %
21.10.2016 22:52 5,4 C 93 % 1016,4 hPa 0,0 l/m 5,9 km/h (2 Bft) SW 226 0 min 0,000 mm 0,0 UV-I 0 W/m 4,4 C 5,4 C 8,0 km/h (2 Bft) 97,37 %
21.10.2016 22:54 5,4 C 93 % 1016,4 hPa 0,0 l/m 5,8 km/h (2 Bft) W-SW 247 0 min 0,000 mm 0,0 UV-I 0 W/m 4,4 C 5,4 C 9,7 km/h (2 Bft) 100,00 %
21.10.2016 22:56 5,4 C 93 % 1016,5 hPa 0,0 l/m 4,9 km/h (1 Bft) SW 236 0 min 0,000 mm 0,0 UV-I 0 W/m 4,4 C 5,4 C 6,4 km/h (2 Bft) 100,00 %
21.10.2016 22:58 5,4 C 93 % 1016,4 hPa 0,0 l/m 5,7 km/h (1 Bft) W-SW 240 0 min 0,000 mm 0,0 UV-I 0 W/m 4,4 C 5,4 C 11,3 km/h (2 Bft) 97,87 %
21.10.2016 23:00 5,4 C 93 % 1016,4 hPa 0,0 l/m 3,9 km/h (1 Bft) W 259 0 min 0,000 mm 0,0 UV-I 0 W/m 4,4 C 5,4 C 6,4 km/h (2 Bft) 100,00 %
21.10.2016 23:02 5,4 C 93 % 1016,4 hPa 0,0 l/m 5,9 km/h (2 Bft) W-SW 238 0 min 0,000 mm 0,0 UV-I 0 W/m 4,4 C 5,4 C 8,0 km/h (2 Bft) 100,00 %
21.10.2016 23:04 5,4 C 93 % 1016,5 hPa 0,0 l/m 6,4 km/h (2 Bft) W-SW 249 0 min 0,000 mm 0,0 UV-I 0 W/m 4,4 C 5,4 C 8,0 km/h (2 Bft) 100,00 %
21.10.2016 23:06 5,4 C 93 % 1016,4 hPa 0,0 l/m 4,8 km/h (1 Bft) W-SW 250 0 min 0,000 mm 0,0 UV-I 0 W/m 4,4 C 5,4 C 6,4 km/h (2 Bft) 100,00 %
21.10.2016 23:08 5,4 C 93 % 1016,4 hPa 0,0 l/m 5,4 km/h (1 Bft) SW 229 0 min 0,000 mm 0,0 UV-I 0 W/m 4,4 C 5,4 C 6,4 km/h (2 Bft) 100,00 %
21.10.2016 23:10 5,3 C 93 % 1016,4 hPa 0,0 l/m 4,4 km/h (1 Bft) SW 225 0 min 0,000 mm 0,0 UV-I 0 W/m 4,3 C 5,3 C 6,4 km/h (2 Bft) 100,00 %
21.10.2016 23:12 5,3 C 93 % 1016,4 hPa 0,0 l/m 4,8 km/h (1 Bft) SW 225 0 min 0,000 mm 0,0 UV-I 0 W/m 4,3 C 5,3 C 8,0 km/h (2 Bft) 100,00 %
21.10.2016 23:14 5,2 C 93 % 1016,4 hPa 0,0 l/m 4,5 km/h (1 Bft) SW 231 0 min 0,000 mm 0,0 UV-I 0 W/m 4,2 C 5,2 C 6,4 km/h (2 Bft) 100,00 %
21.10.2016 23:16 5,2 C 93 % 1016,4 hPa 0,0 l/m 5,3 km/h (1 Bft) SW 231 0 min 0,000 mm 0,0 UV-I 0 W/m 4,2 C 5,2 C 8,0 km/h (2 Bft) 100,00 %
21.10.2016 23:18 5,2 C 93 % 1016,4 hPa 0,0 l/m 5,7 km/h (1 Bft) SW 226 0 min 0,000 mm 0,0 UV-I 0 W/m 4,2 C 5,2 C 8,0 km/h (2 Bft) 100,00 %
21.10.2016 23:20 5,1 C 93 % 1016,3 hPa 0,0 l/m 5,0 km/h (1 Bft) SW 226 0 min 0,000 mm 0,0 UV-I 0 W/m 4,1 C 5,1 C 6,4 km/h (2 Bft) 100,00 %
21.10.2016 23:22 5,2 C 94 % 1016,3 hPa 0,0 l/m 4,9 km/h (1 Bft) SW 226 0 min 0,000 mm 0,0 UV-I 0 W/m 4,3 C 5,2 C 6,4 km/h (2 Bft) 100,00 %
21.10.2016 23:24 5,1 C 94 % 1016,3 hPa 0,0 l/m 4,4 km/h (1 Bft) SW 227 0 min 0,000 mm 0,0 UV-I 0 W/m 4,2 C 5,1 C 6,4 km/h (2 Bft) 97,87 %
21.10.2016 23:26 5,2 C 94 % 1016,3 hPa 0,0 l/m 4,4 km/h (1 Bft) SW 229 0 min 0,000 mm 0,0 UV-I 0 W/m 4,3 C 5,2 C 6,4 km/h (2 Bft) 100,00 %
21.10.2016 23:28 5,2 C 94 % 1016,3 hPa 0,0 l/m 4,5 km/h (1 Bft) SW 225 0 min 0,000 mm 0,0 UV-I 0 W/m 4,3 C 5,2 C 6,4 km/h (2 Bft) 100,00 %
21.10.2016 23:30 5,2 C 94 % 1016,3 hPa 0,0 l/m 5,4 km/h (1 Bft) SW 223 0 min 0,000 mm 0,0 UV-I 0 W/m 4,3 C 5,2 C 8,0 km/h (2 Bft) 100,00 %
21.10.2016 23:32 5,2 C 94 % 1016,3 hPa 0,0 l/m 3,8 km/h (1 Bft) SW 223 0 min 0,000 mm 0,0 UV-I 0 W/m 4,3 C 5,2 C 4,8 km/h (1 Bft) 97,37 %
21.10.2016 23:34 5,2 C 94 % 1016,3 hPa 0,0 l/m 4,5 km/h (1 Bft) SW 223 0 min 0,000 mm 0,0 UV-I 0 W/m 4,3 C 5,2 C 6,4 km/h (2 Bft) 100,00 %
21.10.2016 23:36 5,3 C 94 % 1016,3 hPa 0,0 l/m 4,3 km/h (1 Bft) SW 223 0 min 0,000 mm 0,0 UV-I 0 W/m 4,4 C 5,3 C 6,4 km/h (2 Bft) 100,00 %
21.10.2016 23:38 5,3 C 94 % 1016,2 hPa 0,0 l/m 3,8 km/h (1 Bft) SW 223 0 min 0,000 mm 0,0 UV-I 0 W/m 4,4 C 5,3 C 6,4 km/h (2 Bft) 100,00 %
21.10.2016 23:40 5,3 C 94 % 1016,1 hPa 0,0 l/m 3,9 km/h (1 Bft) SW 223 0 min 0,000 mm 0,0 UV-I 0 W/m 4,4 C 5,3 C 6,4 km/h (2 Bft) 100,00 %
21.10.2016 23:42 5,3 C 94 % 1016,2 hPa 0,0 l/m 3,9 km/h (1 Bft) SW 223 0 min 0,000 mm 0,0 UV-I 0 W/m 4,4 C 5,3 C 6,4 km/h (2 Bft) 95,74 %
21.10.2016 23:44 5,4 C 94 % 1016,2 hPa 0,0 l/m 0,8 km/h (0 Bft) SW 223 0 min 0,000 mm 0,0 UV-I 0 W/m 4,5 C 5,4 C 1,6 km/h (1 Bft) 96,00 %
21.10.2016 23:46 5,4 C 94 % 1016,2 hPa 0,0 l/m 1,7 km/h (1 Bft) SW 223 0 min 0,000 mm 0,0 UV-I 0 W/m 4,5 C 5,4 C 4,8 km/h (1 Bft) 96,00 %
21.10.2016 23:48 5,4 C 94 % 1016,1 hPa 0,0 l/m 1,3 km/h (1 Bft) SW 223 0 min 0,000 mm 0,0 UV-I 0 W/m 4,5 C 5,4 C 3,2 km/h (1 Bft) 96,00 %
21.10.2016 23:50 5,4 C 94 % 1016,1 hPa 0,0 l/m 1,1 km/h (1 Bft) SW 223 0 min 0,000 mm 0,0 UV-I 0 W/m 4,5 C 5,4 C 1,6 km/h (1 Bft) 100,00 %
21.10.2016 23:52 5,4 C 94 % 1016,1 hPa 0,0 l/m 0,8 km/h (0 Bft) SW 223 0 min 0,000 mm 0,0 UV-I 0 W/m 4,5 C 5,4 C 1,6 km/h (1 Bft) 96,00 %
21.10.2016 23:54 5,4 C 93 % 1016,1 hPa 0,0 l/m 1,4 km/h (1 Bft) SW 223 0 min 0,000 mm 0,0 UV-I 0 W/m 4,4 C 5,4 C 3,2 km/h (1 Bft) 98,11 %
21.10.2016 23:56 5,5 C 93 % 1016,1 hPa 0,0 l/m 2,5 km/h (1 Bft) SW 221 0 min 0,000 mm 0,0 UV-I 0 W/m 4,5 C 5,5 C 4,8 km/h (1 Bft) 97,37 %
21.10.2016 23:58 5,6 C 93 % 1016,1 hPa 0,0 l/m 2,3 km/h (1 Bft) SW 221 0 min 0,000 mm 0,0 UV-I 0 W/m 4,6 C 5,6 C 4,8 km/h (1 Bft) 97,87 %
_ Min-Zeit 06:42 13:59 06:18 - 01:26 - - - - - - 06:42 06:42 01:28 19:46
Minimum _ 0,2 C 78 % 1013,2 hPa - 0,0 km/h (0 Bft) - - - - - - -0,1 C 0,2 C 0,0 km/h (0 Bft) 92,00 %
_ Max-Zeit 14:20 09:44 22:56 08:56 13:59 - - 12:49 13:00 12:46 12:46 12:40 15:28 13:59 00:00
Maximum _ 9,7 C 99 % 1016,5 hPa 0,2 l/m 10,3 km/h
W-NW (2 Bft)
- - 3 min 0,153 mm 1,6 UV-I 626 W/m 7,2 C 9,7 C 19,3 km/h
SW (3 Bft)
100,00 %
Durchschnitt _ 5,1 C 91 % 1014,4 hPa #0,2 l/m 2,9 km/h (1 Bft) W-SW - #3:20 h #0,787 mm 0,8 UV-I 166 W/m 3,8 C 5,0 C 5,4 km/h (1 Bft) 98,60 %